Observation data for McAdoo on 11/21/2020      Previous  Date       Current Mesonet Observations  Soil Data  Daily Summary Page  Observations in Plain Language
KMC6 210600Z 05007KT 13/07 A3032 RMK A01 T01250071  RH  070%=      5-min Rain = 0
KMC6 210601Z 05008KT 13/07 A3032 RMK A01 T01250072  RH  070%=      5-min Rain = 0
KMC6 210602Z 05008KT 13/07 A3032 RMK A01 T01260073  RH  070%=      5-min Rain = 0
KMC6 210603Z 05009KT 13/07 A3032 RMK A01 T01270073  RH  070%=      5-min Rain = 0
KMC6 210604Z 05009KT 13/07 A3032 RMK A01 T01270073  RH  070%=      5-min Rain = 0
KMC6 210605Z 04009KT 13/07 A3032 RMK A01 T01280074  RH  070%=      5-min Rain = 0
KMC6 210606Z 04009KT 13/07 A3032 RMK A01 T01280074  RH  070%=      5-min Rain = 0
KMC6 210607Z 04010KT 13/08 A3032 RMK A01 T01280075  RH  070%=      5-min Rain = 0
KMC6 210608Z 04009KT 13/08 A3032 RMK A01 T01280076  RH  070%=      5-min Rain = 0
KMC6 210609Z 04009KT 13/08 A3032 RMK A01 T01280076  RH  071%=      5-min Rain = 0
KMC6 210610Z 04009KT 13/08 A3032 RMK A01 T01280076  RH  070%=      5-min Rain = 0
KMC6 210611Z 04010KT 13/08 A3032 RMK A01 T01280076  RH  071%=      5-min Rain = 0
KMC6 210612Z 05011KT 13/08 A3032 RMK A01 T01280078  RH  071%=      5-min Rain = 0
KMC6 210613Z 05009KT 13/08 A3032 RMK A01 T01290079  RH  072%=      5-min Rain = 0
KMC6 210614Z 04011KT 13/08 A3032 RMK A01 T01290080  RH  072%=      5-min Rain = 0
KMC6 210615Z 04011KT 13/08 A3032 RMK A01 T01300081  RH  072%=      5-min Rain = 0
KMC6 210616Z 04010KT 13/08 A3032 RMK A01 T01300081  RH  072%=      5-min Rain = 0
KMC6 210617Z 04010KT 13/08 A3032 RMK A01 T01300081  RH  072%=      5-min Rain = 0
KMC6 210618Z 04010KT 13/08 A3032 RMK A01 T01300082  RH  072%=      5-min Rain = 0
KMC6 210619Z 04011KT 13/08 A3032 RMK A01 T01300083  RH  073%=      5-min Rain = 0
KMC6 210620Z 04010KT 13/08 A3032 RMK A01 T01300083  RH  073%=      5-min Rain = 0
KMC6 210621Z 04011KT 13/08 A3032 RMK A01 T01300083  RH  073%=      5-min Rain = 0
KMC6 210622Z 04011KT 13/08 A3032 RMK A01 T01300082  RH  072%=      5-min Rain = 0
KMC6 210623Z 04010KT 13/08 A3032 RMK A01 T01300080  RH  072%=      5-min Rain = 0
KMC6 210624Z 04009KT 13/08 A3032 RMK A01 T01300080  RH  072%=      5-min Rain = 0
KMC6 210625Z 04011KT 13/08 A3032 RMK A01 T01290080  RH  072%=      5-min Rain = 0
KMC6 210626Z 05010KT 13/08 A3032 RMK A01 T01290080  RH  072%=      5-min Rain = 0
KMC6 210627Z 05009KT 13/08 A3032 RMK A01 T01290081  RH  073%=      5-min Rain = 0
KMC6 210628Z 05008KT 13/08 A3032 RMK A01 T01290081  RH  073%=      5-min Rain = 0
KMC6 210629Z 05010KT 13/08 A3032 RMK A01 T01280081  RH  073%=      5-min Rain = 0
KMC6 210630Z 05012KT 13/08 A3032 RMK A01 T01280082  RH  073%=      5-min Rain = 0
KMC6 210631Z 05011KT 13/08 A3032 RMK A01 T01280082  RH  074%=      5-min Rain = 0
KMC6 210632Z 05012KT 13/08 A3032 RMK A01 T01280082  RH  074%=      5-min Rain = 0
KMC6 210633Z 05012KT 13/08 A3032 RMK A01 T01280083  RH  074%=      5-min Rain = 0
KMC6 210634Z 05012KT 13/08 A3032 RMK A01 T01280084  RH  075%=      5-min Rain = 0
KMC6 210635Z 05012KT 13/09 A3032 RMK A01 T01280085  RH  075%=      5-min Rain = 0
KMC6 210636Z 05012KT 13/09 A3032 RMK A01 T01270085  RH  075%=      5-min Rain = 0
KMC6 210637Z 05010KT 13/08 A3032 RMK A01 T01270084  RH  075%=      5-min Rain = 0
KMC6 210638Z 05013KT 13/09 A3032 RMK A01 T01270085  RH  075%=      5-min Rain = 0
KMC6 210639Z 05011KT 13/09 A3032 RMK A01 T01270085  RH  076%=      5-min Rain = 0
KMC6 210640Z 05011KT 13/08 A3032 RMK A01 T01270084  RH  075%=      5-min Rain = 0
KMC6 210641Z 05013KT 13/09 A3032 RMK A01 T01270085  RH  076%=      5-min Rain = 0
KMC6 210642Z 05014KT 13/09 A3032 RMK A01 T01270086  RH  076%=      5-min Rain = 0
KMC6 210643Z 05012KT 13/09 A3032 RMK A01 T01270086  RH  076%=      5-min Rain = 0
KMC6 210644Z 04011KT 13/09 A3032 RMK A01 T01260085  RH  076%=      5-min Rain = 0
KMC6 210645Z 05012KT 13/09 A3032 RMK A01 T01260085  RH  076%=      5-min Rain = 0
KMC6 210646Z 05012KT 13/08 A3032 RMK A01 T01260084  RH  076%=      5-min Rain = 0
KMC6 210647Z 04011KT 13/08 A3032 RMK A01 T01250084  RH  076%=      5-min Rain = 0
KMC6 210648Z 04010KT 13/08 A3032 RMK A01 T01250084  RH  076%=      5-min Rain = 0
KMC6 210649Z 04011KT 13/08 A3032 RMK A01 T01250083  RH  076%=      5-min Rain = 0
KMC6 210650Z 04010KT 13/08 A3032 RMK A01 T01250083  RH  076%=      5-min Rain = 0
KMC6 210651Z 05010KT 12/08 A3032 RMK A01 T01240082  RH  076%=      5-min Rain = 0
KMC6 210652Z 04012KT 12/08 A3031 RMK A01 T01240082  RH  076%=      5-min Rain = 0
KMC6 210653Z 04012KT 12/08 A3031 RMK A01 T01230083  RH  076%=      5-min Rain = 0
KMC6 210654Z 04011KT 12/08 A3031 RMK A01 T01230083  RH  076%=      5-min Rain = 0
KMC6 210655Z 04012KT 12/08 A3031 RMK A01 T01230083  RH  076%=      5-min Rain = 0
KMC6 210656Z 04010KT 12/08 A3031 RMK A01 T01230082  RH  076%=      5-min Rain = 0
KMC6 210657Z 04010KT 12/08 A3031 RMK A01 T01220081  RH  076%=      5-min Rain = 0
KMC6 210658Z 04010KT 12/08 A3031 RMK A01 T01220081  RH  076%=      5-min Rain = 0
KMC6 210659Z 04011KT 12/08 A3031 RMK A01 T01210081  RH  076%=      5-min Rain = 0
KMC6 210700Z 04010KT 12/08 A3031 RMK A01 T01210081  RH  077%=      5-min Rain = 0
KMC6 210701Z 04010KT 12/08 A3031 RMK A01 T01200081  RH  077%=      5-min Rain = 0
KMC6 210702Z 04011KT 12/08 A3031 RMK A01 T01200081  RH  077%=      5-min Rain = 0
KMC6 210703Z 04011KT 12/08 A3031 RMK A01 T01190082  RH  078%=      5-min Rain = 0
KMC6 210704Z 04010KT 12/08 A3031 RMK A01 T01190082  RH  078%=      5-min Rain = 0
KMC6 210705Z 04009KT 12/08 A3031 RMK A01 T01190082  RH  078%=      5-min Rain = 0
KMC6 210706Z 04010KT 12/08 A3031 RMK A01 T01190082  RH  078%=      5-min Rain = 0
KMC6 210707Z 04011KT 12/08 A3031 RMK A01 T01180082  RH  078%=      5-min Rain = 0
KMC6 210708Z 04011KT 12/08 A3031 RMK A01 T01180082  RH  079%=      5-min Rain = 0
KMC6 210709Z 04010KT 12/08 A3031 RMK A01 T01180082  RH  079%=      5-min Rain = 0
KMC6 210710Z 04011KT 12/08 A3031 RMK A01 T01170083  RH  079%=      5-min Rain = 0
KMC6 210711Z 04010KT 12/08 A3031 RMK A01 T01170082  RH  079%=      5-min Rain = 0
KMC6 210712Z 04012KT 12/08 A3031 RMK A01 T01170082  RH  079%=      5-min Rain = 0
KMC6 210713Z 04011KT 12/08 A3031 RMK A01 T01170083  RH  079%=      5-min Rain = 0
KMC6 210714Z 04011KT 12/08 A3031 RMK A01 T01170082  RH  079%=      5-min Rain = 0
KMC6 210715Z 04010KT 12/08 A3031 RMK A01 T01170082  RH  079%=      5-min Rain = 0
KMC6 210716Z 04012KT 12/08 A3031 RMK A01 T01160082  RH  080%=      5-min Rain = 0
KMC6 210717Z 04010KT 12/08 A3031 RMK A01 T01160082  RH  080%=      5-min Rain = 0
KMC6 210718Z 04010KT 12/08 A3031 RMK A01 T01160082  RH  080%=      5-min Rain = 0
KMC6 210719Z 04011KT 12/08 A3031 RMK A01 T01160083  RH  080%=      5-min Rain = 0
KMC6 210720Z 04010KT 12/08 A3031 RMK A01 T01150083  RH  080%=      5-min Rain = 0
KMC6 210721Z 04010KT 12/08 A3031 RMK A01 T01150083  RH  081%=      5-min Rain = 0
KMC6 210722Z 04009KT 12/08 A3031 RMK A01 T01150083  RH  081%=      5-min Rain = 0
KMC6 210723Z 04010KT 12/08 A3031 RMK A01 T01150083  RH  081%=      5-min Rain = 0
KMC6 210724Z 04011KT 12/08 A3031 RMK A01 T01150083  RH  081%=      5-min Rain = 0
KMC6 210725Z 04011KT 11/08 A3031 RMK A01 T01140083  RH  081%=      5-min Rain = 0
KMC6 210726Z 04011KT 11/08 A3031 RMK A01 T01140084  RH  082%=      5-min Rain = 0
KMC6 210727Z 04011KT 11/08 A3031 RMK A01 T01140084  RH  082%=      5-min Rain = 0
KMC6 210728Z 04011KT 11/08 A3031 RMK A01 T01140084  RH  082%=      5-min Rain = 0
KMC6 210729Z 04011KT 11/08 A3031 RMK A01 T01140084  RH  082%=      5-min Rain = 0
KMC6 210730Z 04010KT 11/08 A3031 RMK A01 T01140084  RH  082%=      5-min Rain = 0
KMC6 210731Z 04009KT 11/08 A3031 RMK A01 T01140084  RH  082%=      5-min Rain = 0
KMC6 210732Z 04010KT 11/08 A3031 RMK A01 T01140084  RH  082%=      5-min Rain = 0
KMC6 210733Z 04011KT 11/08 A3031 RMK A01 T01130084  RH  082%=      5-min Rain = 0
KMC6 210734Z 04009KT 11/09 A3031 RMK A01 T01130085  RH  083%=      5-min Rain = 0
KMC6 210735Z 04009KT 11/09 A3031 RMK A01 T01130085  RH  083%=      5-min Rain = 0
KMC6 210736Z 04009KT 11/08 A3031 RMK A01 T01130084  RH  083%=      5-min Rain = 0
KMC6 210737Z 04009KT 11/09 A3031 RMK A01 T01120085  RH  083%=      5-min Rain = 0
KMC6 210738Z 04011KT 11/09 A3031 RMK A01 T01120085  RH  084%=      5-min Rain = 0
KMC6 210739Z 04011KT 11/09 A3031 RMK A01 T01120085  RH  084%=      5-min Rain = 0
KMC6 210740Z 04011KT 11/09 A3031 RMK A01 T01120086  RH  084%=      5-min Rain = 0
KMC6 210741Z 04011KT 11/09 A3031 RMK A01 T01120086  RH  084%=      5-min Rain = 0
KMC6 210742Z 04010KT 11/09 A3031 RMK A01 T01130086  RH  084%=      5-min Rain = 0
KMC6 210743Z 04009KT 11/09 A3031 RMK A01 T01120085  RH  083%=      5-min Rain = 0
KMC6 210744Z 04009KT 11/09 A3031 RMK A01 T01120085  RH  083%=      5-min Rain = 0
KMC6 210745Z 04011KT 11/09 A3031 RMK A01 T01120085  RH  084%=      5-min Rain = 0
KMC6 210746Z 04010KT 11/09 A3031 RMK A01 T01120085  RH  084%=      5-min Rain = 0
KMC6 210747Z 03011KT 11/09 A3031 RMK A01 T01120085  RH  084%=      5-min Rain = 0
KMC6 210748Z 04010KT 11/09 A3031 RMK A01 T01120085  RH  084%=      5-min Rain = 0
KMC6 210749Z 04009KT 11/09 A3031 RMK A01 T01120085  RH  084%=      5-min Rain = 0
KMC6 210750Z 04010KT 11/09 A3031 RMK A01 T01120085  RH  084%=      5-min Rain = 0
KMC6 210751Z 04009KT 11/09 A3031 RMK A01 T01110085  RH  084%=      5-min Rain = 0
KMC6 210752Z 04009KT 11/09 A3031 RMK A01 T01110085  RH  084%=      5-min Rain = 0
KMC6 210753Z 04009KT 11/08 A3031 RMK A01 T01110084  RH  084%=      5-min Rain = 0
KMC6 210754Z 04008KT 11/08 A3031 RMK A01 T01100084  RH  084%=      5-min Rain = 0
KMC6 210755Z 04008KT 11/08 A3031 RMK A01 T01100084  RH  084%=      5-min Rain = 0
KMC6 210756Z 04009KT 11/08 A3031 RMK A01 T01100084  RH  084%=      5-min Rain = 0
KMC6 210757Z 04009KT 11/08 A3031 RMK A01 T01100084  RH  084%=      5-min Rain = 0
KMC6 210758Z 04009KT 11/09 A3031 RMK A01 T01100085  RH  084%=      5-min Rain = 0
KMC6 210759Z 04009KT 11/08 A3031 RMK A01 T01100084  RH  084%=      5-min Rain = 0
KMC6 210800Z 04010KT 11/08 A3031 RMK A01 T01100084  RH  084%=      5-min Rain = 0
KMC6 210801Z 04011KT 11/08 A3031 RMK A01 T01100084  RH  084%=      5-min Rain = 0
KMC6 210802Z 04011KT 11/09 A3031 RMK A01 T01100085  RH  085%=      5-min Rain = 0
KMC6 210803Z 04009KT 11/08 A3031 RMK A01 T01100084  RH  084%=      5-min Rain = 0
KMC6 210804Z 03009KT 11/08 A3031 RMK A01 T01100084  RH  084%=      5-min Rain = 0
KMC6 210805Z 03008KT 11/08 A3031 RMK A01 T01100084  RH  084%=      5-min Rain = 0
KMC6 210806Z 03009KT 11/08 A3031 RMK A01 T01100084  RH  084%=      5-min Rain = 0
KMC6 210807Z 04010KT 11/08 A3031 RMK A01 T01100084  RH  084%=      5-min Rain = 0
KMC6 210808Z 03011KT 11/08 A3031 RMK A01 T01090083  RH  084%=      5-min Rain = 0
KMC6 210809Z 03011KT 11/08 A3031 RMK A01 T01090084  RH  084%=      5-min Rain = 0
KMC6 210810Z 03012KT 11/08 A3031 RMK A01 T01090084  RH  084%=      5-min Rain = 0
KMC6 210811Z 03011KT 11/08 A3031 RMK A01 T01090083  RH  084%=      5-min Rain = 0
KMC6 210812Z 03010KT 11/08 A3031 RMK A01 T01090084  RH  084%=      5-min Rain = 0
KMC6 210813Z 03011KT 11/08 A3031 RMK A01 T01090083  RH  084%=      5-min Rain = 0
KMC6 210814Z 03011KT 11/08 A3031 RMK A01 T01090083  RH  084%=      5-min Rain = 0
KMC6 210815Z 03010KT 11/08 A3031 RMK A01 T01090083  RH  084%=      5-min Rain = 0
KMC6 210816Z 03009KT 11/08 A3031 RMK A01 T01090083  RH  084%=      5-min Rain = 0
KMC6 210817Z 03010KT 11/08 A3031 RMK A01 T01090083  RH  084%=      5-min Rain = 0
KMC6 210818Z 03010KT 11/08 A3031 RMK A01 T01080083  RH  084%=      5-min Rain = 0
KMC6 210819Z 03011KT 11/08 A3031 RMK A01 T01080083  RH  084%=      5-min Rain = 0
KMC6 210820Z 03010KT 11/08 A3031 RMK A01 T01080083  RH  084%=      5-min Rain = 0
KMC6 210821Z 03010KT 11/08 A3031 RMK A01 T01080083  RH  084%=      5-min Rain = 0
KMC6 210822Z 03010KT 11/08 A3031 RMK A01 T01080082  RH  084%=      5-min Rain = 0
KMC6 210823Z 03011KT 11/08 A3031 RMK A01 T01080083  RH  084%=      5-min Rain = 0
KMC6 210824Z 03011KT 11/08 A3031 RMK A01 T01080083  RH  084%=      5-min Rain = 0
KMC6 210825Z 03010KT 11/08 A3031 RMK A01 T01070082  RH  084%=      5-min Rain = 0
KMC6 210826Z 03010KT 11/08 A3031 RMK A01 T01070082  RH  084%=      5-min Rain = 0
KMC6 210827Z 03011KT 11/08 A3031 RMK A01 T01070082  RH  084%=      5-min Rain = 0
KMC6 210828Z 03011KT 11/08 A3031 RMK A01 T01070082  RH  085%=      5-min Rain = 0
KMC6 210829Z 03012KT 11/08 A3031 RMK A01 T01070083  RH  085%=      5-min Rain = 0
KMC6 210830Z 03011KT 11/08 A3031 RMK A01 T01070083  RH  085%=      5-min Rain = 0
KMC6 210831Z 04010KT 11/08 A3031 RMK A01 T01070082  RH  084%=      5-min Rain = 0
KMC6 210832Z 03010KT 11/08 A3031 RMK A01 T01070082  RH  084%=      5-min Rain = 0
KMC6 210833Z 03010KT 11/08 A3031 RMK A01 T01070082  RH  084%=      5-min Rain = 0
KMC6 210834Z 03009KT 11/08 A3031 RMK A01 T01070082  RH  085%=      5-min Rain = 0
KMC6 210835Z 03009KT 11/08 A3031 RMK A01 T01070082  RH  085%=      5-min Rain = 0
KMC6 210836Z 03010KT 11/08 A3031 RMK A01 T01070082  RH  085%=      5-min Rain = 0
KMC6 210837Z 03011KT 11/08 A3031 RMK A01 T01060082  RH  085%=      5-min Rain = 0
KMC6 210838Z 03011KT 11/08 A3031 RMK A01 T01060082  RH  085%=      5-min Rain = 0
KMC6 210839Z 03010KT 11/08 A3031 RMK A01 T01060082  RH  085%=      5-min Rain = 0
KMC6 210840Z 03010KT 11/08 A3031 RMK A01 T01060081  RH  085%=      5-min Rain = 0
KMC6 210841Z 03011KT 11/08 A3031 RMK A01 T01060082  RH  085%=      5-min Rain = 0
KMC6 210842Z 03011KT 11/08 A3031 RMK A01 T01060082  RH  085%=      5-min Rain = 0
KMC6 210843Z 03011KT 11/08 A3031 RMK A01 T01060082  RH  085%=      5-min Rain = 0
KMC6 210844Z 03009KT 11/08 A3031 RMK A01 T01060082  RH  085%=      5-min Rain = 0
KMC6 210845Z 03008KT 11/08 A3031 RMK A01 T01060081  RH  085%=      5-min Rain = 0
KMC6 210846Z 03009KT 11/08 A3031 RMK A01 T01060081  RH  085%=      5-min Rain = 0
KMC6 210847Z 03010KT 11/08 A3031 RMK A01 T01050081  RH  085%=      5-min Rain = 0
KMC6 210848Z 03009KT 11/08 A3031 RMK A01 T01050081  RH  085%=      5-min Rain = 0
KMC6 210849Z 03009KT 11/08 A3031 RMK A01 T01050081  RH  085%=      5-min Rain = 0
KMC6 210850Z 03009KT 11/08 A3031 RMK A01 T01050081  RH  085%=      5-min Rain = 0
KMC6 210851Z 03009KT 11/08 A3031 RMK A01 T01050080  RH  085%=      5-min Rain = 0
KMC6 210852Z 03011KT 10/08 A3031 RMK A01 T01040080  RH  085%=      5-min Rain = 0
KMC6 210853Z 03012KT 10/08 A3031 RMK A01 T01040081  RH  085%=      5-min Rain = 0
KMC6 210854Z 03009KT 10/08 A3031 RMK A01 T01040081  RH  086%=      5-min Rain = 0
KMC6 210855Z 03008KT 11/08 A3031 RMK A01 T01050081  RH  085%=      5-min Rain = 0
KMC6 210856Z 04009KT 11/08 A3031 RMK A01 T01050081  RH  085%=      5-min Rain = 0
KMC6 210857Z 03012KT 11/08 A3031 RMK A01 T01050081  RH  085%=      5-min Rain = 0
KMC6 210858Z 03011KT 11/08 A3031 RMK A01 T01050081  RH  086%=      5-min Rain = 0
KMC6 210859Z 03010KT 11/08 A3031 RMK A01 T01050081  RH  085%=      5-min Rain = 0
KMC6 210900Z 03010KT 11/08 A3031 RMK A01 T01050081  RH  085%=      5-min Rain = 0
KMC6 210901Z 04008KT 11/08 A3031 RMK A01 T01050082  RH  085%=      5-min Rain = 0
KMC6 210902Z 03009KT 11/08 A3031 RMK A01 T01050081  RH  085%=      5-min Rain = 0
KMC6 210903Z 03010KT 10/08 A3031 RMK A01 T01040081  RH  085%=      5-min Rain = 0
KMC6 210904Z 03009KT 10/08 A3031 RMK A01 T01040081  RH  086%=      5-min Rain = 0
KMC6 210905Z 03010KT 11/08 A3031 RMK A01 T01050081  RH  085%=      5-min Rain = 0
KMC6 210906Z 03009KT 11/08 A3031 RMK A01 T01050081  RH  085%=      5-min Rain = 0
KMC6 210907Z 03008KT 11/08 A3031 RMK A01 T01050081  RH  085%=      5-min Rain = 0
KMC6 210908Z 03007KT 10/08 A3031 RMK A01 T01040081  RH  085%=      5-min Rain = 0
KMC6 210909Z 03010KT 10/08 A3031 RMK A01 T01040080  RH  085%=      5-min Rain = 0
KMC6 210910Z 03010KT 10/08 A3031 RMK A01 T01040081  RH  086%=      5-min Rain = 0
KMC6 210911Z 03010KT 10/08 A3031 RMK A01 T01040081  RH  086%=      5-min Rain = 0
KMC6 210912Z 03010KT 10/08 A3031 RMK A01 T01040081  RH  086%=      5-min Rain = 0
KMC6 210913Z 03012KT 10/08 A3031 RMK A01 T01040081  RH  086%=      5-min Rain = 0
KMC6 210914Z 03009KT 10/08 A3031 RMK A01 T01040081  RH  086%=      5-min Rain = 0
KMC6 210915Z 03009KT 10/08 A3031 RMK A01 T01040081  RH  085%=      5-min Rain = 0
KMC6 210916Z 03008KT 10/08 A3031 RMK A01 T01040081  RH  085%=      5-min Rain = 0
KMC6 210917Z 03007KT 10/08 A3031 RMK A01 T01040080  RH  085%=      5-min Rain = 0
KMC6 210918Z 03009KT 10/08 A3031 RMK A01 T01040080  RH  085%=      5-min Rain = 0
KMC6 210919Z 03009KT 10/08 A3031 RMK A01 T01030080  RH  086%=      5-min Rain = 0
KMC6 210920Z 03009KT 10/08 A3031 RMK A01 T01030080  RH  086%=      5-min Rain = 0
KMC6 210921Z 03008KT 10/08 A3031 RMK A01 T01030080  RH  085%=      5-min Rain = 0
KMC6 210922Z 03011KT 10/08 A3031 RMK A01 T01030080  RH  086%=      5-min Rain = 0
KMC6 210923Z 03011KT 10/08 A3031 RMK A01 T01030080  RH  086%=      5-min Rain = 0
KMC6 210924Z 03010KT 10/08 A3031 RMK A01 T01030080  RH  086%=      5-min Rain = 0
KMC6 210925Z 03009KT 10/08 A3031 RMK A01 T01030081  RH  086%=      5-min Rain = 0
KMC6 210926Z 03009KT 10/08 A3031 RMK A01 T01030080  RH  086%=      5-min Rain = 0
KMC6 210927Z 03007KT 10/08 A3031 RMK A01 T01030080  RH  086%=      5-min Rain = 0
KMC6 210928Z 03009G14KT 10/08 A3031 RMK A01 T01030080  RH  086%=      5-min Rain = 0
KMC6 210929Z 03011KT 10/08 A3031 RMK A01 T01030080  RH  086%=      5-min Rain = 0
KMC6 210930Z 03012KT 10/08 A3031 RMK A01 T01030081  RH  086%=      5-min Rain = 0
KMC6 210931Z 02012KT 10/08 A3031 RMK A01 T01030081  RH  086%=      5-min Rain = 0
KMC6 210932Z 03010KT 10/08 A3031 RMK A01 T01030081  RH  086%=      5-min Rain = 0
KMC6 210933Z 03010KT 10/08 A3031 RMK A01 T01030080  RH  086%=      5-min Rain = 0
KMC6 210934Z 03009KT 10/08 A3031 RMK A01 T01030081  RH  086%=      5-min Rain = 0
KMC6 210935Z 03011KT 10/08 A3031 RMK A01 T01040081  RH  086%=      5-min Rain = 0
KMC6 210936Z 03010KT 10/08 A3031 RMK A01 T01040081  RH  086%=      5-min Rain = 0
KMC6 210937Z 03009KT 10/08 A3031 RMK A01 T01040082  RH  086%=      5-min Rain = 0
KMC6 210938Z 03010KT 10/08 A3031 RMK A01 T01040082  RH  086%=      5-min Rain = 0
KMC6 210939Z 03011KT 10/08 A3031 RMK A01 T01040081  RH  086%=      5-min Rain = 0
KMC6 210940Z 03010KT 10/08 A3031 RMK A01 T01040081  RH  086%=      5-min Rain = 0
KMC6 210941Z 03009G14KT 10/08 A3032 RMK A01 T01040082  RH  086%=      5-min Rain = 0
KMC6 210942Z 03010KT 11/08 A3032 RMK A01 T01050082  RH  086%=      5-min Rain = 0
KMC6 210943Z 03009KT 11/08 A3032 RMK A01 T01050082  RH  086%=      5-min Rain = 0
KMC6 210944Z 03009KT 11/08 A3032 RMK A01 T01050083  RH  086%=      5-min Rain = 0
KMC6 210945Z 03009KT 11/08 A3032 RMK A01 T01050083  RH  086%=      5-min Rain = 0
KMC6 210946Z 03010KT 11/08 A3032 RMK A01 T01060083  RH  086%=      5-min Rain = 0
KMC6 210947Z 03011KT 11/08 A3032 RMK A01 T01060083  RH  086%=      5-min Rain = 0
KMC6 210948Z 03011KT 11/08 A3032 RMK A01 T01060083  RH  086%=      5-min Rain = 0
KMC6 210949Z 03010KT 11/08 A3032 RMK A01 T01060083  RH  086%=      5-min Rain = 0
KMC6 210950Z 03010KT 11/08 A3031 RMK A01 T01060083  RH  086%=      5-min Rain = 0
KMC6 210951Z 03011KT 11/08 A3031 RMK A01 T01060083  RH  085%=      5-min Rain = 0
KMC6 210952Z 03011KT 11/08 A3032 RMK A01 T01070083  RH  085%=      5-min Rain = 0
KMC6 210953Z 03011KT 11/08 A3032 RMK A01 T01060083  RH  085%=      5-min Rain = 0
KMC6 210954Z 04010KT 11/08 A3032 RMK A01 T01060083  RH  085%=      5-min Rain = 0
KMC6 210955Z 03010KT 11/08 A3032 RMK A01 T01070083  RH  085%=      5-min Rain = 0
KMC6 210956Z 03011KT 11/08 A3032 RMK A01 T01070083  RH  085%=      5-min Rain = 0
KMC6 210957Z 03012KT 11/08 A3032 RMK A01 T01060083  RH  085%=      5-min Rain = 0
KMC6 210958Z 03012KT 11/08 A3032 RMK A01 T01070083  RH  085%=      5-min Rain = 0
KMC6 210959Z 03011KT 11/08 A3032 RMK A01 T01070083  RH  085%=      5-min Rain = 0
KMC6 211000Z 03012KT 11/08 A3032 RMK A01 T01070083  RH  085%=      5-min Rain = 0
KMC6 211001Z 03011KT 11/08 A3032 RMK A01 T01070083  RH  085%=      5-min Rain = 0
KMC6 211002Z 03012KT 11/08 A3032 RMK A01 T01070083  RH  085%=      5-min Rain = 0
KMC6 211003Z 03011KT 11/08 A3032 RMK A01 T01070083  RH  085%=      5-min Rain = 0
KMC6 211004Z 03010KT 11/08 A3032 RMK A01 T01070083  RH  085%=      5-min Rain = 0
KMC6 211005Z 03011KT 11/08 A3032 RMK A01 T01070083  RH  085%=      5-min Rain = 0
KMC6 211006Z 03010KT 11/08 A3032 RMK A01 T01070083  RH  085%=      5-min Rain = 0
KMC6 211007Z 03011KT 11/08 A3032 RMK A01 T01070083  RH  085%=      5-min Rain = 0
KMC6 211008Z 03011KT 11/08 A3032 RMK A01 T01070082  RH  085%=      5-min Rain = 0
KMC6 211009Z 03010KT 11/08 A3032 RMK A01 T01060082  RH  085%=      5-min Rain = 0
KMC6 211010Z 02010KT 11/08 A3032 RMK A01 T01070082  RH  085%=      5-min Rain = 0
KMC6 211011Z 03012KT 11/08 A3032 RMK A01 T01070082  RH  085%=      5-min Rain = 0
KMC6 211012Z 03011KT 11/08 A3032 RMK A01 T01070083  RH  085%=      5-min Rain = 0
KMC6 211013Z 02010KT 11/08 A3032 RMK A01 T01070083  RH  085%=      5-min Rain = 0
KMC6 211014Z 03010KT 11/08 A3032 RMK A01 T01070083  RH  085%=      5-min Rain = 0
KMC6 211015Z 03010KT 11/08 A3032 RMK A01 T01070083  RH  085%=      5-min Rain = 0
KMC6 211016Z 03010KT 11/08 A3032 RMK A01 T01070083  RH  085%=      5-min Rain = 0
KMC6 211017Z 03011KT 11/08 A3032 RMK A01 T01070083  RH  085%=      5-min Rain = 0
KMC6 211018Z 02012KT 11/08 A3032 RMK A01 T01070083  RH  085%=      5-min Rain = 0
KMC6 211019Z 02012KT 11/08 A3032 RMK A01 T01070083  RH  085%=      5-min Rain = 0
KMC6 211020Z 02010KT 11/08 A3032 RMK A01 T01070083  RH  085%=      5-min Rain = 0
KMC6 211021Z 02012KT 11/08 A3032 RMK A01 T01070083  RH  085%=      5-min Rain = 0
KMC6 211022Z 02009KT 11/08 A3032 RMK A01 T01070083  RH  085%=      5-min Rain = 0
KMC6 211023Z 02010KT 11/08 A3032 RMK A01 T01070083  RH  085%=      5-min Rain = 0
KMC6 211024Z 02011KT 11/08 A3032 RMK A01 T01070083  RH  085%=      5-min Rain = 0
KMC6 211025Z 02010KT 11/08 A3032 RMK A01 T01070083  RH  085%=      5-min Rain = 0
KMC6 211026Z 02010KT 11/08 A3032 RMK A01 T01070083  RH  085%=      5-min Rain = 0
KMC6 211027Z 02011KT 11/08 A3032 RMK A01 T01070083  RH  085%=      5-min Rain = 0
KMC6 211028Z 02011KT 11/08 A3032 RMK A01 T01070083  RH  085%=      5-min Rain = 0
KMC6 211029Z 02009KT 11/08 A3032 RMK A01 T01070083  RH  085%=      5-min Rain = 0
KMC6 211030Z 03008KT 11/08 A3032 RMK A01 T01070083  RH  085%=      5-min Rain = 0
KMC6 211031Z 02011KT 11/08 A3032 RMK A01 T01070083  RH  085%=      5-min Rain = 0
KMC6 211032Z 03010KT 11/08 A3032 RMK A01 T01070084  RH  086%=      5-min Rain = 0
KMC6 211033Z 03011KT 11/08 A3032 RMK A01 T01070084  RH  086%=      5-min Rain = 0
KMC6 211034Z 02011KT 11/08 A3032 RMK A01 T01070084  RH  086%=      5-min Rain = 0
KMC6 211035Z 03011KT 11/08 A3032 RMK A01 T01070084  RH  086%=      5-min Rain = 0
KMC6 211036Z 03012KT 11/09 A3032 RMK A01 T01070085  RH  086%=      5-min Rain = 0
KMC6 211037Z 03012KT 11/08 A3032 RMK A01 T01070084  RH  086%=      5-min Rain = 0
KMC6 211038Z 03010KT 11/08 A3032 RMK A01 T01070084  RH  086%=      5-min Rain = 0
KMC6 211039Z 03010KT 11/08 A3032 RMK A01 T01070084  RH  086%=      5-min Rain = 0
KMC6 211040Z 03011KT 11/09 A3032 RMK A01 T01070085  RH  086%=      5-min Rain = 0
KMC6 211041Z 03011KT 11/09 A3032 RMK A01 T01070085  RH  086%=      5-min Rain = 0
KMC6 211042Z 03012KT 11/09 A3032 RMK A01 T01070085  RH  086%=      5-min Rain = 0
KMC6 211043Z 03010KT 11/09 A3032 RMK A01 T01070085  RH  086%=      5-min Rain = 0
KMC6 211044Z 02009KT 11/09 A3032 RMK A01 T01070085  RH  086%=      5-min Rain = 0
KMC6 211045Z 02008KT 11/09 A3032 RMK A01 T01070085  RH  086%=      5-min Rain = 0
KMC6 211046Z 03009KT 11/09 A3032 RMK A01 T01080085  RH  086%=      5-min Rain = 0
KMC6 211047Z 02008KT 11/09 A3032 RMK A01 T01080085  RH  086%=      5-min Rain = 0
KMC6 211048Z 03009KT 11/09 A3032 RMK A01 T01080086  RH  086%=      5-min Rain = 0
KMC6 211049Z 02011KT 11/09 A3032 RMK A01 T01080086  RH  086%=      5-min Rain = 0
KMC6 211050Z 03010KT 11/09 A3032 RMK A01 T01080085  RH  086%=      5-min Rain = 0
KMC6 211051Z 03008KT 11/09 A3032 RMK A01 T01080086  RH  086%=      5-min Rain = 0
KMC6 211052Z 03009KT 11/09 A3032 RMK A01 T01080086  RH  086%=      5-min Rain = 0
KMC6 211053Z 03009KT 11/09 A3032 RMK A01 T01080086  RH  086%=      5-min Rain = 0
KMC6 211054Z 03009KT 11/09 A3032 RMK A01 T01080086  RH  086%=      5-min Rain = 0
KMC6 211055Z 03007KT 11/09 A3032 RMK A01 T01080086  RH  086%=      5-min Rain = 0
KMC6 211056Z 03009KT 11/09 A3032 RMK A01 T01080086  RH  086%=      5-min Rain = 0
KMC6 211057Z 03010KT 11/09 A3032 RMK A01 T01080086  RH  086%=      5-min Rain = 0
KMC6 211058Z 03011KT 11/09 A3032 RMK A01 T01080087  RH  087%=      5-min Rain = 0
KMC6 211059Z 03009KT 11/09 A3032 RMK A01 T01080087  RH  086%=      5-min Rain = 0
KMC6 211100Z 03008KT 11/09 A3032 RMK A01 T01080086  RH  086%=      5-min Rain = 0
KMC6 211101Z 03007KT 11/09 A3032 RMK A01 T01080086  RH  086%=      5-min Rain = 0
KMC6 211102Z 03009KT 11/09 A3032 RMK A01 T01090087  RH  086%=      5-min Rain = 0
KMC6 211103Z 03008KT 11/09 A3032 RMK A01 T01090087  RH  086%=      5-min Rain = 0
KMC6 211104Z 03009KT 11/09 A3032 RMK A01 T01090087  RH  086%=      5-min Rain = 0
KMC6 211105Z 03009KT 11/09 A3032 RMK A01 T01090087  RH  086%=      5-min Rain = 0
KMC6 211106Z 03008KT 11/09 A3032 RMK A01 T01090087  RH  086%=      5-min Rain = 0
KMC6 211107Z 03008KT 11/09 A3032 RMK A01 T01090087  RH  086%=      5-min Rain = 0
KMC6 211108Z 03008KT 11/09 A3032 RMK A01 T01090087  RH  086%=      5-min Rain = 0
KMC6 211109Z 03011KT 11/09 A3032 RMK A01 T01090087  RH  086%=      5-min Rain = 0
KMC6 211110Z 03010KT 11/09 A3032 RMK A01 T01090087  RH  087%=      5-min Rain = 0
KMC6 211111Z 03011KT 11/09 A3031 RMK A01 T01090087  RH  087%=      5-min Rain = 0
KMC6 211112Z 04009KT 11/09 A3031 RMK A01 T01090087  RH  087%=      5-min Rain = 0
KMC6 211113Z 04010KT 11/09 A3031 RMK A01 T01090087  RH  087%=      5-min Rain = 0
KMC6 211114Z 04008KT 11/09 A3031 RMK A01 T01090087  RH  087%=      5-min Rain = 0
KMC6 211115Z 04012KT 11/09 A3031 RMK A01 T01090087  RH  086%=      5-min Rain = 0
KMC6 211116Z 04011KT 11/09 A3031 RMK A01 T01090087  RH  087%=      5-min Rain = 0
KMC6 211117Z 04010KT 11/09 A3031 RMK A01 T01090087  RH  087%=      5-min Rain = 0
KMC6 211118Z 04008KT 11/09 A3031 RMK A01 T01090087  RH  087%=      5-min Rain = 0
KMC6 211119Z 04008KT 11/09 A3031 RMK A01 T01090087  RH  087%=      5-min Rain = 0
KMC6 211120Z 04008KT 11/09 A3031 RMK A01 T01090088  RH  087%=      5-min Rain = 0
KMC6 211121Z 04007KT 11/09 A3031 RMK A01 T01090087  RH  087%=      5-min Rain = 0
KMC6 211122Z 04008KT 11/09 A3031 RMK A01 T01090087  RH  087%=      5-min Rain = 0
KMC6 211123Z 04009KT 11/09 A3031 RMK A01 T01090087  RH  087%=      5-min Rain = 0
KMC6 211124Z 04010KT 11/09 A3031 RMK A01 T01090087  RH  087%=      5-min Rain = 0
KMC6 211125Z 04011KT 11/09 A3031 RMK A01 T01090087  RH  087%=      5-min Rain = 0
KMC6 211126Z 04011KT 11/09 A3031 RMK A01 T01090088  RH  087%=      5-min Rain = 0
KMC6 211127Z 04012KT 11/09 A3031 RMK A01 T01080087  RH  087%=      5-min Rain = 0
KMC6 211128Z 04011KT 11/09 A3031 RMK A01 T01080088  RH  087%=      5-min Rain = 0
KMC6 211129Z 04009KT 11/09 A3031 RMK A01 T01080088  RH  087%=      5-min Rain = 0
KMC6 211130Z 04011KT 11/09 A3031 RMK A01 T01080088  RH  087%=      5-min Rain = 0
KMC6 211131Z 05009KT 11/09 A3031 RMK A01 T01080088  RH  087%=      5-min Rain = 0
KMC6 211132Z 05007KT 11/09 A3031 RMK A01 T01080088  RH  087%=      5-min Rain = 0
KMC6 211133Z 05007KT 11/09 A3031 RMK A01 T01080088  RH  087%=      5-min Rain = 0
KMC6 211134Z 05009KT 11/09 A3031 RMK A01 T01080088  RH  087%=      5-min Rain = 0
KMC6 211135Z 04009KT 11/09 A3031 RMK A01 T01080088  RH  087%=      5-min Rain = 0
KMC6 211136Z 04008KT 11/09 A3031 RMK A01 T01080088  RH  087%=      5-min Rain = 0
KMC6 211137Z 05007KT 11/09 A3031 RMK A01 T01080088  RH  087%=      5-min Rain = 0
KMC6 211138Z 04009KT 11/09 A3031 RMK A01 T01080088  RH  087%=      5-min Rain = 0
KMC6 211139Z 04009KT 11/09 A3031 RMK A01 T01080088  RH  087%=      5-min Rain = 0
KMC6 211140Z 04009KT 11/09 A3031 RMK A01 T01080089  RH  088%=      5-min Rain = 0
KMC6 211141Z 05007KT 11/09 A3031 RMK A01 T01080089  RH  088%=      5-min Rain = 0
KMC6 211142Z 04006KT 11/09 A3031 RMK A01 T01080088  RH  087%=      5-min Rain = 0
KMC6 211143Z 04007KT 11/09 A3031 RMK A01 T01090089  RH  088%=      5-min Rain = 0
KMC6 211144Z 04008KT 11/09 A3031 RMK A01 T01090089  RH  088%=      5-min Rain = 0
KMC6 211145Z 04010KT 11/09 A3031 RMK A01 T01090089  RH  088%=      5-min Rain = 0
KMC6 211146Z 04009KT 11/09 A3031 RMK A01 T01090089  RH  088%=      5-min Rain = 0
KMC6 211147Z 04009KT 11/09 A3031 RMK A01 T01090089  RH  088%=      5-min Rain = 0
KMC6 211148Z 04009KT 11/09 A3031 RMK A01 T01090089  RH  088%=      5-min Rain = 0
KMC6 211149Z 04010KT 11/09 A3031 RMK A01 T01090089  RH  088%=      5-min Rain = 0
KMC6 211150Z 04009KT 11/09 A3031 RMK A01 T01090089  RH  088%=      5-min Rain = 0
KMC6 211151Z 04010KT 11/09 A3031 RMK A01 T01090089  RH  087%=      5-min Rain = 0
KMC6 211152Z 04009KT 11/09 A3031 RMK A01 T01090089  RH  087%=      5-min Rain = 0
KMC6 211153Z 04009KT 11/09 A3031 RMK A01 T01090089  RH  087%=      5-min Rain = 0
KMC6 211154Z 04010KT 11/09 A3031 RMK A01 T01090089  RH  087%=      5-min Rain = 0
KMC6 211155Z 04010KT 11/09 A3031 RMK A01 T01090089  RH  087%=      5-min Rain = 0
KMC6 211156Z 04010KT 11/09 A3031 RMK A01 T01090089  RH  087%=      5-min Rain = 0
KMC6 211157Z 04009KT 11/09 A3031 RMK A01 T01090089  RH  088%=      5-min Rain = 0
KMC6 211158Z 04010KT 11/09 A3031 RMK A01 T01090089  RH  088%=      5-min Rain = 0
KMC6 211159Z 04011KT 11/09 A3031 RMK A01 T01090089  RH  088%=      5-min Rain = 0
KMC6 211200Z 04010KT 11/09 A3031 RMK A01 T01090089  RH  088%=      5-min Rain = 0
KMC6 211201Z 04008KT 11/09 A3031 RMK A01 T01090089  RH  088%=      5-min Rain = 0
KMC6 211202Z 04009KT 11/09 A3031 RMK A01 T01090089  RH  088%=      5-min Rain = 0
KMC6 211203Z 03010KT 11/09 A3031 RMK A01 T01090089  RH  088%=      5-min Rain = 0
KMC6 211204Z 03009KT 11/09 A3031 RMK A01 T01090089  RH  088%=      5-min Rain = 0
KMC6 211205Z 03010KT 11/09 A3032 RMK A01 T01090089  RH  087%=      5-min Rain = 0
KMC6 211206Z 03010KT 11/09 A3032 RMK A01 T01090089  RH  087%=      5-min Rain = 0
KMC6 211207Z 03010KT 11/09 A3032 RMK A01 T01090089  RH  087%=      5-min Rain = 0
KMC6 211208Z 03011KT 11/09 A3032 RMK A01 T01090089  RH  087%=      5-min Rain = 0
KMC6 211209Z 03009KT 11/09 A3032 RMK A01 T01090089  RH  087%=      5-min Rain = 0
KMC6 211210Z 03009KT 11/09 A3032 RMK A01 T01090089  RH  087%=      5-min Rain = 0
KMC6 211211Z 03011KT 11/09 A3032 RMK A01 T01090089  RH  087%=      5-min Rain = 0
KMC6 211212Z 03011KT 11/09 A3032 RMK A01 T01090089  RH  087%=      5-min Rain = 0
KMC6 211213Z 03011KT 11/09 A3032 RMK A01 T01090089  RH  087%=      5-min Rain = 0
KMC6 211214Z 04011KT 11/09 A3032 RMK A01 T01090089  RH  087%=      5-min Rain = 0
KMC6 211215Z 03012KT 11/09 A3032 RMK A01 T01090089  RH  087%=      5-min Rain = 0
KMC6 211216Z 04011KT 11/09 A3032 RMK A01 T01090089  RH  087%=      5-min Rain = 0
KMC6 211217Z 03010KT 11/09 A3032 RMK A01 T01090089  RH  087%=      5-min Rain = 0
KMC6 211218Z 03008KT 11/09 A3032 RMK A01 T01090089  RH  087%=      5-min Rain = 0
KMC6 211219Z 03007KT 11/09 A3032 RMK A01 T01090089  RH  087%=      5-min Rain = 0
KMC6 211220Z 03007KT 11/09 A3032 RMK A01 T01090089  RH  087%=      5-min Rain = 0
KMC6 211221Z 03009KT 11/09 A3032 RMK A01 T01090089  RH  087%=      5-min Rain = 0
KMC6 211222Z 03010KT 11/09 A3033 RMK A01 T01090088  RH  087%=      5-min Rain = 0
KMC6 211223Z 03009KT 11/09 A3033 RMK A01 T01090088  RH  087%=      5-min Rain = 0
KMC6 211224Z 04009KT 11/09 A3033 RMK A01 T01090088  RH  087%=      5-min Rain = 0
KMC6 211225Z 03009KT 11/09 A3032 RMK A01 T01090088  RH  087%=      5-min Rain = 0
KMC6 211226Z 03011KT 11/09 A3032 RMK A01 T01090088  RH  087%=      5-min Rain = 0
KMC6 211227Z 03011KT 11/09 A3032 RMK A01 T01090088  RH  087%=      5-min Rain = 0
KMC6 211228Z 03010KT 11/09 A3032 RMK A01 T01090088  RH  087%=      5-min Rain = 0
KMC6 211229Z 03008KT 11/09 A3032 RMK A01 T01090088  RH  087%=      5-min Rain = 0
KMC6 211230Z 03008KT 11/09 A3032 RMK A01 T01090088  RH  087%=      5-min Rain = 0
KMC6 211231Z 03006KT 11/09 A3032 RMK A01 T01090088  RH  087%=      5-min Rain = 0
KMC6 211232Z 03007KT 11/09 A3032 RMK A01 T01090088  RH  087%=      5-min Rain = 0
KMC6 211233Z 03007KT 11/09 A3032 RMK A01 T01090088  RH  087%=      5-min Rain = 0
KMC6 211234Z 03008KT 11/09 A3032 RMK A01 T01090088  RH  087%=      5-min Rain = 0
KMC6 211235Z 04010KT 11/09 A3032 RMK A01 T01090088  RH  087%=      5-min Rain = 0
KMC6 211236Z 03010KT 11/09 A3032 RMK A01 T01090088  RH  087%=      5-min Rain = 0
KMC6 211237Z 03010KT 11/09 A3032 RMK A01 T01090088  RH  087%=      5-min Rain = 0
KMC6 211238Z 03010KT 11/09 A3032 RMK A01 T01090088  RH  087%=      5-min Rain = 0
KMC6 211239Z 03011KT 11/09 A3032 RMK A01 T01090088  RH  087%=      5-min Rain = 0
KMC6 211240Z 03010KT 11/09 A3032 RMK A01 T01090088  RH  087%=      5-min Rain = 0
KMC6 211241Z 04010KT 11/09 A3032 RMK A01 T01090088  RH  087%=      5-min Rain = 0
KMC6 211242Z 04008KT 11/09 A3032 RMK A01 T01090088  RH  087%=      5-min Rain = 0
KMC6 211243Z 04010KT 11/09 A3032 RMK A01 T01090088  RH  087%=      5-min Rain = 0
KMC6 211244Z 04010KT 11/09 A3033 RMK A01 T01090088  RH  087%=      5-min Rain = 0
KMC6 211245Z 03010KT 11/09 A3033 RMK A01 T01090088  RH  087%=      5-min Rain = 0
KMC6 211246Z 04008KT 11/09 A3033 RMK A01 T01090088  RH  087%=      5-min Rain = 0
KMC6 211247Z 04010KT 11/09 A3033 RMK A01 T01090088  RH  087%=      5-min Rain = 0
KMC6 211248Z 03010KT 11/09 A3033 RMK A01 T01090088  RH  087%=      5-min Rain = 0
KMC6 211249Z 04009KT 11/09 A3033 RMK A01 T01090088  RH  087%=      5-min Rain = 0
KMC6 211250Z 03008KT 11/09 A3033 RMK A01 T01090088  RH  087%=      5-min Rain = 0
KMC6 211251Z 03008KT 11/09 A3033 RMK A01 T01090088  RH  087%=      5-min Rain = 0
KMC6 211252Z 03010KT 11/09 A3033 RMK A01 T01090088  RH  087%=      5-min Rain = 0
KMC6 211253Z 04008KT 11/09 A3033 RMK A01 T01090088  RH  087%=      5-min Rain = 0
KMC6 211254Z 04008KT 11/09 A3033 RMK A01 T01090088  RH  087%=      5-min Rain = 0
KMC6 211255Z 04009KT 11/09 A3033 RMK A01 T01090088  RH  087%=      5-min Rain = 0
KMC6 211256Z 04010KT 11/09 A3033 RMK A01 T01090088  RH  087%=      5-min Rain = 0
KMC6 211257Z 04008KT 11/09 A3033 RMK A01 T01090088  RH  087%=      5-min Rain = 0
KMC6 211258Z 03008KT 11/09 A3033 RMK A01 T01090088  RH  087%=      5-min Rain = 0
KMC6 211259Z 04007KT 11/09 A3033 RMK A01 T01090088  RH  087%=      5-min Rain = 0
KMC6 211300Z 04007KT 11/09 A3033 RMK A01 T01090088  RH  087%=      5-min Rain = 0
KMC6 211301Z 04007KT 11/09 A3033 RMK A01 T01090088  RH  087%=      5-min Rain = 0
KMC6 211302Z 04006KT 11/09 A3033 RMK A01 T01090088  RH  087%=      5-min Rain = 0
KMC6 211303Z 04008KT 11/09 A3033 RMK A01 T01090088  RH  087%=      5-min Rain = 0
KMC6 211304Z 04008KT 11/09 A3033 RMK A01 T01090088  RH  087%=      5-min Rain = 0
KMC6 211305Z 04009KT 11/09 A3033 RMK A01 T01090088  RH  087%=      5-min Rain = 0
KMC6 211306Z 04010KT 11/09 A3033 RMK A01 T01090088  RH  087%=      5-min Rain = 0
KMC6 211307Z 04010KT 11/09 A3033 RMK A01 T01090088  RH  087%=      5-min Rain = 0
KMC6 211308Z 04010KT 11/09 A3033 RMK A01 T01090088  RH  087%=      5-min Rain = 0
KMC6 211309Z 05009KT 11/09 A3033 RMK A01 T01090088  RH  087%=      5-min Rain = 0
KMC6 211310Z 05010KT 11/09 A3033 RMK A01 T01090088  RH  087%=      5-min Rain = 0
KMC6 211311Z 05009KT 11/09 A3033 RMK A01 T01090088  RH  087%=      5-min Rain = 0
KMC6 211312Z 05009KT 11/09 A3033 RMK A01 T01090088  RH  087%=      5-min Rain = 0
KMC6 211313Z 04009KT 11/09 A3033 RMK A01 T01090088  RH  087%=      5-min Rain = 0
KMC6 211314Z 04010KT 11/09 A3033 RMK A01 T01090088  RH  087%=      5-min Rain = 0
KMC6 211315Z 04010KT 11/09 A3033 RMK A01 T01090088  RH  087%=      5-min Rain = 0
KMC6 211316Z 04010KT 11/09 A3034 RMK A01 T01090088  RH  087%=      5-min Rain = 0
KMC6 211317Z 04009KT 11/09 A3034 RMK A01 T01090088  RH  087%=      5-min Rain = 0
KMC6 211318Z 04009KT 11/09 A3034 RMK A01 T01090088  RH  087%=      5-min Rain = 0
KMC6 211319Z 04010KT 11/09 A3034 RMK A01 T01090088  RH  087%=      5-min Rain = 0
KMC6 211320Z 04010KT 11/09 A3034 RMK A01 T01090088  RH  087%=      5-min Rain = 0
KMC6 211321Z 03010KT 11/09 A3034 RMK A01 T01090088  RH  087%=      5-min Rain = 0
KMC6 211322Z 04010KT 11/09 A3034 RMK A01 T01080088  RH  087%=      5-min Rain = 0
KMC6 211323Z 04010KT 11/09 A3034 RMK A01 T01080088  RH  087%=      5-min Rain = 0
KMC6 211324Z 04010KT 11/09 A3034 RMK A01 T01080088  RH  087%=      5-min Rain = 0
KMC6 211325Z 03010KT 11/09 A3034 RMK A01 T01080088  RH  087%=      5-min Rain = 0
KMC6 211326Z 03010KT 11/09 A3034 RMK A01 T01080088  RH  087%=      5-min Rain = 0
KMC6 211327Z 03008KT 11/09 A3034 RMK A01 T01080088  RH  087%=      5-min Rain = 0
KMC6 211328Z 03010KT 11/09 A3033 RMK A01 T01080088  RH  087%=      5-min Rain = 0
KMC6 211329Z 03009KT 11/09 A3033 RMK A01 T01080088  RH  087%=      5-min Rain = 0
KMC6 211330Z 04008KT 11/09 A3033 RMK A01 T01080088  RH  087%=      5-min Rain = 0
KMC6 211331Z 04010KT 11/09 A3033 RMK A01 T01080088  RH  087%=      5-min Rain = 0
KMC6 211332Z 04010KT 11/09 A3033 RMK A01 T01080088  RH  087%=      5-min Rain = 0
KMC6 211333Z 04010KT 11/09 A3033 RMK A01 T01080088  RH  087%=      5-min Rain = 0
KMC6 211334Z 04011KT 11/09 A3033 RMK A01 T01080088  RH  088%=      5-min Rain = 0
KMC6 211335Z 04010KT 11/09 A3033 RMK A01 T01080089  RH  088%=      5-min Rain = 0
KMC6 211336Z 04010KT 11/09 A3033 RMK A01 T01080089  RH  088%=      5-min Rain = 0
KMC6 211337Z 04010KT 11/09 A3033 RMK A01 T01080089  RH  088%=      5-min Rain = 0
KMC6 211338Z 04011KT 11/09 A3033 RMK A01 T01080089  RH  088%=      5-min Rain = 0
KMC6 211339Z 04010KT 11/09 A3033 RMK A01 T01080089  RH  088%=      5-min Rain = 0
KMC6 211340Z 04009KT 11/09 A3033 RMK A01 T01080089  RH  088%=      5-min Rain = 0
KMC6 211341Z 04010KT 11/09 A3033 RMK A01 T01080089  RH  088%=      5-min Rain = 0
KMC6 211342Z 05010KT 11/09 A3033 RMK A01 T01080089  RH  088%=      5-min Rain = 0
KMC6 211343Z 04010KT 11/09 A3033 RMK A01 T01080089  RH  088%=      5-min Rain = 0
KMC6 211344Z 04009KT 11/09 A3033 RMK A01 T01080089  RH  088%=      5-min Rain = 0
KMC6 211345Z 05010KT 11/09 A3033 RMK A01 T01080089  RH  088%=      5-min Rain = 0
KMC6 211346Z 04010KT 11/09 A3033 RMK A01 T01080089  RH  088%=      5-min Rain = 0
KMC6 211347Z 04012KT 11/09 A3033 RMK A01 T01090089  RH  088%=      5-min Rain = 0
KMC6 211348Z 04011KT 11/09 A3033 RMK A01 T01090089  RH  088%=      5-min Rain = 0
KMC6 211349Z 04011KT 11/09 A3033 RMK A01 T01090089  RH  088%=      5-min Rain = 0
KMC6 211350Z 04011KT 11/09 A3033 RMK A01 T01090089  RH  088%=      5-min Rain = 0
KMC6 211351Z 04011KT 11/09 A3033 RMK A01 T01090089  RH  088%=      5-min Rain = 0
KMC6 211352Z 04010KT 11/09 A3033 RMK A01 T01090089  RH  088%=      5-min Rain = 0
KMC6 211353Z 04008KT 11/09 A3033 RMK A01 T01090089  RH  088%=      5-min Rain = 0
KMC6 211354Z 04009KT 11/09 A3033 RMK A01 T01090090  RH  088%=      5-min Rain = 0
KMC6 211355Z 04009KT 11/09 A3033 RMK A01 T01090090  RH  088%=      5-min Rain = 0
KMC6 211356Z 04010KT 11/09 A3033 RMK A01 T01100090  RH  088%=      5-min Rain = 0
KMC6 211357Z 04009KT 11/09 A3033 RMK A01 T01100090  RH  087%=      5-min Rain = 0
KMC6 211358Z 04010KT 11/09 A3033 RMK A01 T01100090  RH  087%=      5-min Rain = 0
KMC6 211359Z 04010KT 11/09 A3033 RMK A01 T01100090  RH  087%=      5-min Rain = 0
KMC6 211400Z 04010KT 11/09 A3033 RMK A01 T01100090  RH  087%=      5-min Rain = 0
KMC6 211401Z 04011KT 11/09 A3033 RMK A01 T01110090  RH  087%=      5-min Rain = 0
KMC6 211402Z 04010KT 11/09 A3033 RMK A01 T01110090  RH  087%=      5-min Rain = 0
KMC6 211403Z 04010KT 11/09 A3033 RMK A01 T01110090  RH  087%=      5-min Rain = 0
KMC6 211404Z 04010KT 11/09 A3033 RMK A01 T01110090  RH  087%=      5-min Rain = 0
KMC6 211405Z 04010KT 11/09 A3033 RMK A01 T01110090  RH  087%=      5-min Rain = 0
KMC6 211406Z 04010KT 11/09 A3033 RMK A01 T01110091  RH  087%=      5-min Rain = 0
KMC6 211407Z 04011KT 11/09 A3033 RMK A01 T01120091  RH  087%=      5-min Rain = 0
KMC6 211408Z 04011KT 11/09 A3033 RMK A01 T01120090  RH  087%=      5-min Rain = 0
KMC6 211409Z 04011KT 11/09 A3033 RMK A01 T01120090  RH  087%=      5-min Rain = 0
KMC6 211410Z 04010KT 11/09 A3033 RMK A01 T01120091  RH  087%=      5-min Rain = 0
KMC6 211411Z 04010KT 11/09 A3033 RMK A01 T01130091  RH  086%=      5-min Rain = 0
KMC6 211412Z 04010KT 11/09 A3033 RMK A01 T01130091  RH  086%=      5-min Rain = 0
KMC6 211413Z 04009KT 11/09 A3033 RMK A01 T01140092  RH  086%=      5-min Rain = 0
KMC6 211414Z 04010KT 11/09 A3033 RMK A01 T01140091  RH  086%=      5-min Rain = 0
KMC6 211415Z 04010KT 11/09 A3033 RMK A01 T01140091  RH  086%=      5-min Rain = 0
KMC6 211416Z 04009KT 12/09 A3033 RMK A01 T01150092  RH  086%=      5-min Rain = 0
KMC6 211417Z 04009KT 12/09 A3033 RMK A01 T01160092  RH  086%=      5-min Rain = 0
KMC6 211418Z 04010KT 12/09 A3033 RMK A01 T01170092  RH  085%=      5-min Rain = 0
KMC6 211419Z 04009KT 12/09 A3033 RMK A01 T01170092  RH  085%=      5-min Rain = 0
KMC6 211420Z 03007KT 12/09 A3033 RMK A01 T01170092  RH  085%=      5-min Rain = 0
KMC6 211421Z 03009KT 12/09 A3033 RMK A01 T01170092  RH  085%=      5-min Rain = 0
KMC6 211422Z 02008KT 12/09 A3033 RMK A01 T01170092  RH  084%=      5-min Rain = 0
KMC6 211423Z 03009KT 12/09 A3033 RMK A01 T01180092  RH  084%=      5-min Rain = 0
KMC6 211424Z 03010KT 12/09 A3033 RMK A01 T01180092  RH  084%=      5-min Rain = 0
KMC6 211425Z 03009KT 12/09 A3033 RMK A01 T01180092  RH  084%=      5-min Rain = 0
KMC6 211426Z 02010KT 12/09 A3033 RMK A01 T01180092  RH  084%=      5-min Rain = 0
KMC6 211427Z 02010KT 12/09 A3033 RMK A01 T01180092  RH  084%=      5-min Rain = 0
KMC6 211428Z 02009KT 12/09 A3033 RMK A01 T01180092  RH  084%=      5-min Rain = 0
KMC6 211429Z 02010KT 12/09 A3033 RMK A01 T01180092  RH  084%=      5-min Rain = 0
KMC6 211430Z 03008KT 12/09 A3034 RMK A01 T01190093  RH  084%=      5-min Rain = 0
KMC6 211431Z 03008KT 12/09 A3034 RMK A01 T01190093  RH  084%=      5-min Rain = 0
KMC6 211432Z 03010KT 12/09 A3034 RMK A01 T01200093  RH  083%=      5-min Rain = 0
KMC6 211433Z 03010KT 12/09 A3034 RMK A01 T01210094  RH  084%=      5-min Rain = 0
KMC6 211434Z 04010KT 12/09 A3034 RMK A01 T01220093  RH  083%=      5-min Rain = 0
KMC6 211435Z 04009KT 12/09 A3034 RMK A01 T01220094  RH  083%=      5-min Rain = 0
KMC6 211436Z 04009KT 12/09 A3034 RMK A01 T01240094  RH  082%=      5-min Rain = 0
KMC6 211437Z 04008KT 12/09 A3034 RMK A01 T01240094  RH  082%=      5-min Rain = 0
KMC6 211438Z 04009KT 13/10 A3034 RMK A01 T01250095  RH  082%=      5-min Rain = 0
KMC6 211439Z 03009KT 13/09 A3034 RMK A01 T01260094  RH  081%=      5-min Rain = 0
KMC6 211440Z 04010KT 13/09 A3034 RMK A01 T01260094  RH  081%=      5-min Rain = 0
KMC6 211441Z 03009KT 13/09 A3034 RMK A01 T01250093  RH  081%=      5-min Rain = 0
KMC6 211442Z 03009KT 13/09 A3034 RMK A01 T01250093  RH  081%=      5-min Rain = 0
KMC6 211443Z 03009KT 12/09 A3034 RMK A01 T01240093  RH  081%=      5-min Rain = 0
KMC6 211444Z 03009KT 12/09 A3034 RMK A01 T01230092  RH  081%=      5-min Rain = 0
KMC6 211445Z 02008KT 12/09 A3034 RMK A01 T01220092  RH  082%=      5-min Rain = 0
KMC6 211446Z 02008KT 12/09 A3034 RMK A01 T01220092  RH  082%=      5-min Rain = 0
KMC6 211447Z 02009KT 12/09 A3034 RMK A01 T01210092  RH  082%=      5-min Rain = 0
KMC6 211448Z 02008KT 12/09 A3034 RMK A01 T01200092  RH  083%=      5-min Rain = 0
KMC6 211449Z 04007KT 12/09 A3034 RMK A01 T01200092  RH  083%=      5-min Rain = 0
KMC6 211450Z 03010KT 12/09 A3034 RMK A01 T01200092  RH  083%=      5-min Rain = 0
KMC6 211451Z 02008KT 12/09 A3034 RMK A01 T01190092  RH  083%=      5-min Rain = 0
KMC6 211452Z 02008KT 12/09 A3034 RMK A01 T01190092  RH  083%=      5-min Rain = 0
KMC6 211453Z 02009KT 12/09 A3034 RMK A01 T01190092  RH  084%=      5-min Rain = 0
KMC6 211454Z 03009KT 12/09 A3034 RMK A01 T01180092  RH  084%=      5-min Rain = 0
KMC6 211455Z 02008KT 12/09 A3034 RMK A01 T01180092  RH  084%=      5-min Rain = 0
KMC6 211456Z 02008KT 12/09 A3034 RMK A01 T01180092  RH  084%=      5-min Rain = 0
KMC6 211457Z 02009KT 12/09 A3034 RMK A01 T01180092  RH  084%=      5-min Rain = 0
KMC6 211458Z 02008KT 12/09 A3034 RMK A01 T01180092  RH  084%=      5-min Rain = 0
KMC6 211459Z 02007KT 12/09 A3034 RMK A01 T01180092  RH  084%=      5-min Rain = 0
KMC6 211500Z 02006KT 12/09 A3034 RMK A01 T01180092  RH  084%=      5-min Rain = 0
KMC6 211501Z 02007KT 12/09 A3034 RMK A01 T01180092  RH  084%=      5-min Rain = 0
KMC6 211502Z 04007KT 12/09 A3034 RMK A01 T01190093  RH  084%=      5-min Rain = 0
KMC6 211503Z 03008KT 12/09 A3034 RMK A01 T01190093  RH  084%=      5-min Rain = 0
KMC6 211504Z 03008KT 12/09 A3034 RMK A01 T01190093  RH  084%=      5-min Rain = 0
KMC6 211505Z 03009KT 12/09 A3034 RMK A01 T01190093  RH  084%=      5-min Rain = 0
KMC6 211506Z 03007KT 12/09 A3034 RMK A01 T01190093  RH  084%=      5-min Rain = 0
KMC6 211507Z 03006KT 12/09 A3034 RMK A01 T01190093  RH  084%=      5-min Rain = 0
KMC6 211508Z 04008KT 12/09 A3034 RMK A01 T01190093  RH  084%=      5-min Rain = 0
KMC6 211509Z 04007KT 12/09 A3034 RMK A01 T01190093  RH  084%=      5-min Rain = 0
KMC6 211510Z 05008KT 12/09 A3034 RMK A01 T01200094  RH  084%=      5-min Rain = 0
KMC6 211511Z 04008KT 12/09 A3034 RMK A01 T01200094  RH  084%=      5-min Rain = 0
KMC6 211512Z 04008KT 12/09 A3034 RMK A01 T01210094  RH  084%=      5-min Rain = 0
KMC6 211513Z 04007KT 12/09 A3034 RMK A01 T01210093  RH  083%=      5-min Rain = 0
KMC6 211514Z 04008KT 12/09 A3034 RMK A01 T01210093  RH  083%=      5-min Rain = 0
KMC6 211515Z 05009KT 12/09 A3034 RMK A01 T01210094  RH  084%=      5-min Rain = 0
KMC6 211516Z 05007KT 12/09 A3034 RMK A01 T01210094  RH  084%=      5-min Rain = 0
KMC6 211517Z 05008KT 12/09 A3034 RMK A01 T01210094  RH  084%=      5-min Rain = 0
KMC6 211518Z 05008KT 12/09 A3034 RMK A01 T01210093  RH  083%=      5-min Rain = 0
KMC6 211519Z 05008KT 12/09 A3034 RMK A01 T01210093  RH  083%=      5-min Rain = 0
KMC6 211520Z 05006KT 12/09 A3034 RMK A01 T01200094  RH  084%=      5-min Rain = 0
KMC6 211521Z 06007KT 12/09 A3034 RMK A01 T01210094  RH  084%=      5-min Rain = 0
KMC6 211522Z 06007KT 12/09 A3034 RMK A01 T01210094  RH  084%=      5-min Rain = 0
KMC6 211523Z 05008KT 12/09 A3034 RMK A01 T01210094  RH  084%=      5-min Rain = 0
KMC6 211524Z 05006KT 12/09 A3034 RMK A01 T01210094  RH  084%=      5-min Rain = 0
KMC6 211525Z 06008KT 12/10 A3034 RMK A01 T01210095  RH  084%=      5-min Rain = 0
KMC6 211526Z 06008KT 12/09 A3034 RMK A01 T01220094  RH  083%=      5-min Rain = 0
KMC6 211527Z 06007KT 12/09 A3034 RMK A01 T01220094  RH  083%=      5-min Rain = 0
KMC6 211528Z 05007KT 12/09 A3034 RMK A01 T01210094  RH  084%=      5-min Rain = 0
KMC6 211529Z 06006KT 12/10 A3034 RMK A01 T01220095  RH  084%=      5-min Rain = 0
KMC6 211530Z 05007KT 12/10 A3034 RMK A01 T01220095  RH  084%=      5-min Rain = 0
KMC6 211531Z 06007KT 12/10 A3034 RMK A01 T01230095  RH  083%=      5-min Rain = 0
KMC6 211532Z 07008KT 12/10 A3034 RMK A01 T01230095  RH  083%=      5-min Rain = 0
KMC6 211533Z 06008KT 12/10 A3034 RMK A01 T01230095  RH  083%=      5-min Rain = 0
KMC6 211534Z 06008KT 12/10 A3034 RMK A01 T01230095  RH  083%=      5-min Rain = 0
KMC6 211535Z 05007KT 12/10 A3034 RMK A01 T01230095  RH  083%=      5-min Rain = 0
KMC6 211536Z 06007KT 12/10 A3034 RMK A01 T01230095  RH  083%=      5-min Rain = 0
KMC6 211537Z 06008KT 12/10 A3033 RMK A01 T01230096  RH  083%=      5-min Rain = 0
KMC6 211538Z 06008KT 12/10 A3033 RMK A01 T01240095  RH  083%=      5-min Rain = 0
KMC6 211539Z 06007KT 12/10 A3033 RMK A01 T01240095  RH  083%=      5-min Rain = 0
KMC6 211540Z 05008KT 12/10 A3033 RMK A01 T01240095  RH  083%=      5-min Rain = 0
KMC6 211541Z 05007KT 12/10 A3033 RMK A01 T01230095  RH  083%=      5-min Rain = 0
KMC6 211542Z 05007KT 12/10 A3033 RMK A01 T01230095  RH  083%=      5-min Rain = 0
KMC6 211543Z 06007KT 12/10 A3033 RMK A01 T01240095  RH  083%=      5-min Rain = 0
KMC6 211544Z 06008KT 13/10 A3033 RMK A01 T01250096  RH  083%=      5-min Rain = 0
KMC6 211545Z 05007KT 13/10 A3033 RMK A01 T01250095  RH  082%=      5-min Rain = 0
KMC6 211546Z 06008KT 13/10 A3033 RMK A01 T01250096  RH  082%=      5-min Rain = 0
KMC6 211547Z 06008KT 12/10 A3033 RMK A01 T01240095  RH  082%=      5-min Rain = 0
KMC6 211548Z 06008KT 12/10 A3033 RMK A01 T01240095  RH  082%=      5-min Rain = 0
KMC6 211549Z 06006KT 12/10 A3033 RMK A01 T01240095  RH  083%=      5-min Rain = 0
KMC6 211550Z 06007KT 12/10 A3033 RMK A01 T01240095  RH  082%=      5-min Rain = 0
KMC6 211551Z 06008KT 12/10 A3033 RMK A01 T01240095  RH  082%=      5-min Rain = 0
KMC6 211552Z 06008KT 12/10 A3033 RMK A01 T01240095  RH  083%=      5-min Rain = 0
KMC6 211553Z 06007KT 12/10 A3033 RMK A01 T01240095  RH  083%=      5-min Rain = 0
KMC6 211554Z 05007KT 12/10 A3033 RMK A01 T01240095  RH  082%=      5-min Rain = 0
KMC6 211555Z 05007KT 12/10 A3033 RMK A01 T01240095  RH  082%=      5-min Rain = 0
KMC6 211556Z 05008KT 13/10 A3033 RMK A01 T01250095  RH  082%=      5-min Rain = 0
KMC6 211557Z 06007KT 13/10 A3033 RMK A01 T01250095  RH  082%=      5-min Rain = 0
KMC6 211558Z 06007KT 13/10 A3033 RMK A01 T01250096  RH  082%=      5-min Rain = 0
KMC6 211559Z 06007KT 13/10 A3033 RMK A01 T01250096  RH  082%=      5-min Rain = 0
KMC6 211600Z 06007KT 13/10 A3033 RMK A01 T01250095  RH  082%=      5-min Rain = 0
KMC6 211601Z 06006KT 13/10 A3033 RMK A01 T01250095  RH  082%=      5-min Rain = 0
KMC6 211602Z 06006KT 13/10 A3033 RMK A01 T01250095  RH  082%=      5-min Rain = 0
KMC6 211603Z 05006KT 13/10 A3033 RMK A01 T01250095  RH  082%=      5-min Rain = 0
KMC6 211604Z 07005KT 13/10 A3033 RMK A01 T01250096  RH  082%=      5-min Rain = 0
KMC6 211605Z 07006KT 13/10 A3033 RMK A01 T01260096  RH  082%=      5-min Rain = 0
KMC6 211606Z 07007KT 13/10 A3033 RMK A01 T01280097  RH  082%=      5-min Rain = 0
KMC6 211607Z 07005KT 13/10 A3033 RMK A01 T01290099  RH  082%=      5-min Rain = 0
KMC6 211608Z 06007KT 13/10 A3033 RMK A01 T01320100  RH  081%=      5-min Rain = 0
KMC6 211609Z 06006KT 13/10 A3033 RMK A01 T01340100  RH  080%=      5-min Rain = 0
KMC6 211610Z 07006KT 14/10 A3033 RMK A01 T01350099  RH  079%=      5-min Rain = 0
KMC6 211611Z 06007KT 14/10 A3034 RMK A01 T01360099  RH  078%=      5-min Rain = 0
KMC6 211612Z 07005KT 14/10 A3034 RMK A01 T01350098  RH  078%=      5-min Rain = 0
KMC6 211613Z 07005KT 13/10 A3034 RMK A01 T01340099  RH  079%=      5-min Rain = 0
KMC6 211614Z 07005KT 14/10 A3034 RMK A01 T01350099  RH  079%=      5-min Rain = 0
KMC6 211615Z 06006KT 14/10 A3034 RMK A01 T01360099  RH  078%=      5-min Rain = 0
KMC6 211616Z 05006KT 14/10 A3034 RMK A01 T01360098  RH  078%=      5-min Rain = 0
KMC6 211617Z 07006KT 14/10 A3034 RMK A01 T01370100  RH  078%=      5-min Rain = 0
KMC6 211618Z 07006KT 14/10 A3034 RMK A01 T01390101  RH  078%=      5-min Rain = 0
KMC6 211619Z 06005KT 14/10 A3034 RMK A01 T01420103  RH  077%=      5-min Rain = 0
KMC6 211620Z 07004KT 15/10 A3034 RMK A01 T01450102  RH  076%=      5-min Rain = 0
KMC6 211621Z 07006KT 15/10 A3034 RMK A01 T01470102  RH  075%=      5-min Rain = 0
KMC6 211622Z 06006KT 15/10 A3034 RMK A01 T01470102  RH  074%=      5-min Rain = 0
KMC6 211623Z 05006KT 15/10 A3034 RMK A01 T01460101  RH  075%=      5-min Rain = 0
KMC6 211624Z 06004KT 15/10 A3034 RMK A01 T01450101  RH  075%=      5-min Rain = 0
KMC6 211625Z 05006KT 15/10 A3034 RMK A01 T01450101  RH  075%=      5-min Rain = 0
KMC6 211626Z 05006KT 15/10 A3034 RMK A01 T01460100  RH  074%=      5-min Rain = 0
KMC6 211627Z 05006KT 15/10 A3034 RMK A01 T01460101  RH  074%=      5-min Rain = 0
KMC6 211628Z 06006KT 15/10 A3034 RMK A01 T01470101  RH  074%=      5-min Rain = 0
KMC6 211629Z 05006KT 15/10 A3034 RMK A01 T01480102  RH  074%=      5-min Rain = 0
KMC6 211630Z 05006KT 15/10 A3034 RMK A01 T01490102  RH  073%=      5-min Rain = 0
KMC6 211631Z 06006KT 15/10 A3034 RMK A01 T01490101  RH  073%=      5-min Rain = 0
KMC6 211632Z 05007KT 15/10 A3034 RMK A01 T01490101  RH  073%=      5-min Rain = 0
KMC6 211633Z 05006KT 15/10 A3034 RMK A01 T01480101  RH  073%=      5-min Rain = 0
KMC6 211634Z 06006KT 15/10 A3034 RMK A01 T01480100  RH  073%=      5-min Rain = 0
KMC6 211635Z 05007KT 15/10 A3034 RMK A01 T01500101  RH  073%=      5-min Rain = 0
KMC6 211636Z 05007KT 15/10 A3034 RMK A01 T01500100  RH  072%=      5-min Rain = 0
KMC6 211637Z 05005KT 15/10 A3035 RMK A01 T01500101  RH  072%=      5-min Rain = 0
KMC6 211638Z 05007KT 15/10 A3035 RMK A01 T01510102  RH  073%=      5-min Rain = 0
KMC6 211639Z 06007KT 15/10 A3035 RMK A01 T01530103  RH  072%=      5-min Rain = 0
KMC6 211640Z 06007KT 16/10 A3035 RMK A01 T01550101  RH  070%=      5-min Rain = 0
KMC6 211641Z 05006KT 15/10 A3035 RMK A01 T01530101  RH  071%=      5-min Rain = 0
KMC6 211642Z 04008KT 15/10 A3035 RMK A01 T01540101  RH  071%=      5-min Rain = 0
KMC6 211643Z 06006KT 15/10 A3034 RMK A01 T01540101  RH  071%=      5-min Rain = 0
KMC6 211644Z 04007KT 16/10 A3034 RMK A01 T01570103  RH  070%=      5-min Rain = 0
KMC6 211645Z 05007KT 16/10 A3034 RMK A01 T01570100  RH  069%=      5-min Rain = 0
KMC6 211646Z 04006KT 16/10 A3034 RMK A01 T01550100  RH  070%=      5-min Rain = 0
KMC6 211647Z 05006KT 15/10 A3034 RMK A01 T01540102  RH  071%=      5-min Rain = 0
KMC6 211648Z 07007KT 16/10 A3034 RMK A01 T01560101  RH  070%=      5-min Rain = 0
KMC6 211649Z 07006KT 16/10 A3034 RMK A01 T01560100  RH  069%=      5-min Rain = 0
KMC6 211650Z 06006KT 16/10 A3034 RMK A01 T01560102  RH  070%=      5-min Rain = 0
KMC6 211651Z 06007KT 16/10 A3034 RMK A01 T01560101  RH  069%=      5-min Rain = 0
KMC6 211652Z 06008KT 16/10 A3034 RMK A01 T01550102  RH  070%=      5-min Rain = 0
KMC6 211653Z 06008KT 16/10 A3034 RMK A01 T01560100  RH  069%=      5-min Rain = 0
KMC6 211654Z 07006KT 16/10 A3034 RMK A01 T01550100  RH  070%=      5-min Rain = 0
KMC6 211655Z 08005KT 15/10 A3034 RMK A01 T01540101  RH  070%=      5-min Rain = 0
KMC6 211656Z 07006KT 16/10 A3034 RMK A01 T01570103  RH  070%=      5-min Rain = 0
KMC6 211657Z 06005KT 16/10 A3034 RMK A01 T01600102  RH  068%=      5-min Rain = 0
KMC6 211658Z 07007KT 16/10 A3034 RMK A01 T01600102  RH  069%=      5-min Rain = 0
KMC6 211659Z 08007KT 16/10 A3034 RMK A01 T01610101  RH  068%=      5-min Rain = 0
KMC6 211700Z 07006KT 16/10 A3034 RMK A01 T01580100  RH  068%=      5-min Rain = 0
KMC6 211701Z 07006KT 16/10 A3034 RMK A01 T01570100  RH  069%=      5-min Rain = 0
KMC6 211702Z 07006KT 16/10 A3034 RMK A01 T01570100  RH  069%=      5-min Rain = 0
KMC6 211703Z 07007KT 16/10 A3034 RMK A01 T01580101  RH  069%=      5-min Rain = 0
KMC6 211704Z 06007KT 16/10 A3034 RMK A01 T01590100  RH  068%=      5-min Rain = 0
KMC6 211705Z 08006KT 16/10 A3034 RMK A01 T01590101  RH  068%=      5-min Rain = 0
KMC6 211706Z 07006KT 16/10 A3034 RMK A01 T01610101  RH  068%=      5-min Rain = 0
KMC6 211707Z 07007KT 16/10 A3034 RMK A01 T01600101  RH  068%=      5-min Rain = 0
KMC6 211708Z 08006KT 16/10 A3034 RMK A01 T01600100  RH  068%=      5-min Rain = 0
KMC6 211709Z 06005KT 16/10 A3034 RMK A01 T01590101  RH  068%=      5-min Rain = 0
KMC6 211710Z 07006KT 16/10 A3034 RMK A01 T01600101  RH  068%=      5-min Rain = 0
KMC6 211711Z 07006KT 16/10 A3033 RMK A01 T01620102  RH  068%=      5-min Rain = 0
KMC6 211712Z 06006KT 17/10 A3033 RMK A01 T01650103  RH  067%=      5-min Rain = 0
KMC6 211713Z 09005KT 17/10 A3033 RMK A01 T01660103  RH  066%=      5-min Rain = 0
KMC6 211714Z 08007KT 17/10 A3033 RMK A01 T01660103  RH  066%=      5-min Rain = 0
KMC6 211715Z 08005KT 17/10 A3033 RMK A01 T01660101  RH  065%=      5-min Rain = 0
KMC6 211716Z 07005KT 16/10 A3033 RMK A01 T01620100  RH  067%=      5-min Rain = 0
KMC6 211717Z 10005KT 16/10 A3033 RMK A01 T01620102  RH  068%=      5-min Rain = 0
KMC6 211718Z 08008KT 17/10 A3033 RMK A01 T01650101  RH  066%=      5-min Rain = 0
KMC6 211719Z 10007KT 17/10 A3033 RMK A01 T01670102  RH  066%=      5-min Rain = 0
KMC6 211720Z 10007KT 17/10 A3033 RMK A01 T01690101  RH  064%=      5-min Rain = 0
KMC6 211721Z 09006KT 17/10 A3033 RMK A01 T01680101  RH  065%=      5-min Rain = 0
KMC6 211722Z 09005KT 17/10 A3033 RMK A01 T01670101  RH  065%=      5-min Rain = 0
KMC6 211723Z 09006KT 17/10 A3033 RMK A01 T01660101  RH  066%=      5-min Rain = 0
KMC6 211724Z 09008KT 17/10 A3033 RMK A01 T01660101  RH  065%=      5-min Rain = 0
KMC6 211725Z 09005KT 17/10 A3033 RMK A01 T01660101  RH  065%=      5-min Rain = 0
KMC6 211726Z 09005KT 17/10 A3033 RMK A01 T01650101  RH  066%=      5-min Rain = 0
KMC6 211727Z 09006KT 17/10 A3033 RMK A01 T01670101  RH  065%=      5-min Rain = 0
KMC6 211728Z 08007KT 17/10 A3033 RMK A01 T01670102  RH  065%=      5-min Rain = 0
KMC6 211729Z 08007KT 17/10 A3033 RMK A01 T01690102  RH  065%=      5-min Rain = 0
KMC6 211730Z 08007KT 17/10 A3033 RMK A01 T01700102  RH  064%=      5-min Rain = 0
KMC6 211731Z 08007KT 17/10 A3033 RMK A01 T01700102  RH  064%=      5-min Rain = 0
KMC6 211732Z 08007KT 17/10 A3033 RMK A01 T01710101  RH  064%=      5-min Rain = 0
KMC6 211733Z 07006KT 17/10 A3033 RMK A01 T01680101  RH  064%=      5-min Rain = 0
KMC6 211734Z 07006KT 17/10 A3033 RMK A01 T01680101  RH  065%=      5-min Rain = 0
KMC6 211735Z 08005KT 17/10 A3033 RMK A01 T01680101  RH  065%=      5-min Rain = 0
KMC6 211736Z 08004KT 17/10 A3033 RMK A01 T01680101  RH  065%=      5-min Rain = 0
KMC6 211737Z 10007KT 17/10 A3033 RMK A01 T01680103  RH  065%=      5-min Rain = 0
KMC6 211738Z 10006KT 17/10 A3033 RMK A01 T01710102  RH  064%=      5-min Rain = 0
KMC6 211739Z 13007KT 17/10 A3032 RMK A01 T01710102  RH  064%=      5-min Rain = 0
KMC6 211740Z 13005KT 17/10 A3032 RMK A01 T01690101  RH  064%=      5-min Rain = 0
KMC6 211741Z 15004KT 17/10 A3032 RMK A01 T01670101  RH  065%=      5-min Rain = 0
KMC6 211742Z 15005KT 17/10 A3032 RMK A01 T01680103  RH  065%=      5-min Rain = 0
KMC6 211743Z 13003KT 17/10 A3032 RMK A01 T01700102  RH  064%=      5-min Rain = 0
KMC6 211744Z 13002KT 17/10 A3032 RMK A01 T01700102  RH  064%=      5-min Rain = 0
KMC6 211745Z 11005KT 17/10 A3032 RMK A01 T01700102  RH  064%=      5-min Rain = 0
KMC6 211746Z 10006KT 17/10 A3032 RMK A01 T01710103  RH  064%=      5-min Rain = 0
KMC6 211747Z 11005KT 17/10 A3032 RMK A01 T01720101  RH  063%=      5-min Rain = 0
KMC6 211748Z 12004KT 17/10 A3032 RMK A01 T01700101  RH  064%=      5-min Rain = 0
KMC6 211749Z 11005KT 17/10 A3032 RMK A01 T01700103  RH  064%=      5-min Rain = 0
KMC6 211750Z 10006KT 17/10 A3032 RMK A01 T01720102  RH  063%=      5-min Rain = 0
KMC6 211751Z 10005G10KT 17/10 A3032 RMK A01 T01700101  RH  064%=      5-min Rain = 0
KMC6 211752Z 12006KT 17/10 A3032 RMK A01 T01700103  RH  065%=      5-min Rain = 0
KMC6 211753Z 11005KT 17/10 A3032 RMK A01 T01730102  RH  063%=      5-min Rain = 0
KMC6 211754Z 12005KT 17/10 A3032 RMK A01 T01730102  RH  063%=      5-min Rain = 0
KMC6 211755Z 11005KT 17/10 A3032 RMK A01 T01720102  RH  064%=      5-min Rain = 0
KMC6 211756Z 11006KT 17/10 A3032 RMK A01 T01720102  RH  064%=      5-min Rain = 0
KMC6 211757Z 12006KT 17/10 A3032 RMK A01 T01710102  RH  064%=      5-min Rain = 0
KMC6 211758Z 11005KT 17/10 A3032 RMK A01 T01710102  RH  064%=      5-min Rain = 0
KMC6 211759Z 13003KT 17/10 A3032 RMK A01 T01710103  RH  064%=      5-min Rain = 0
KMC6 211800Z 14006KT 17/10 A3032 RMK A01 T01710103  RH  064%=      5-min Rain = 0
KMC6 211801Z 11006KT 17/10 A3031 RMK A01 T01710102  RH  063%=      5-min Rain = 0
KMC6 211802Z 10006KT 17/10 A3031 RMK A01 T01710102  RH  064%=      5-min Rain = 0
KMC6 211803Z 10005KT 17/10 A3031 RMK A01 T01700101  RH  064%=      5-min Rain = 0
KMC6 211804Z 12005G10KT 17/10 A3031 RMK A01 T01690102  RH  065%=      5-min Rain = 0
KMC6 211805Z 09004KT 17/10 A3031 RMK A01 T01720103  RH  064%=      5-min Rain = 0
KMC6 211806Z 09004KT 17/10 A3031 RMK A01 T01730103  RH  063%=      5-min Rain = 0
KMC6 211807Z 11007KT 17/10 A3031 RMK A01 T01740103  RH  063%=      5-min Rain = 0
KMC6 211808Z 13007KT 18/10 A3031 RMK A01 T01760104  RH  063%=      5-min Rain = 0
KMC6 211809Z 14006KT 18/11 A3031 RMK A01 T01790105  RH  062%=      5-min Rain = 0
KMC6 211810Z 15008KT 18/10 A3031 RMK A01 T01810104  RH  061%=      5-min Rain = 0
KMC6 211811Z 15005KT 18/10 A3031 RMK A01 T01790102  RH  061%=      5-min Rain = 0
KMC6 211812Z 15002KT 18/10 A3031 RMK A01 T01760102  RH  062%=      5-min Rain = 0
KMC6 211813Z 13002KT 18/10 A3031 RMK A01 T01750103  RH  062%=      5-min Rain = 0
KMC6 211814Z 13005KT 18/10 A3031 RMK A01 T01760102  RH  062%=      5-min Rain = 0
KMC6 211815Z 14009KT 18/10 A303 RMK A01 T01780104  RH  062%=      5-min Rain = 0
KMC6 211816Z 15007KT 18/10 A303 RMK A01 T01800102  RH  060%=      5-min Rain = 0
KMC6 211817Z 13007KT 18/10 A303 RMK A01 T01780102  RH  061%=      5-min Rain = 0
KMC6 211818Z 15009KT 18/10 A303 RMK A01 T01770102  RH  061%=      5-min Rain = 0
KMC6 211819Z 16008KT 18/10 A303 RMK A01 T01780103  RH  061%=      5-min Rain = 0
KMC6 211820Z 13007KT 18/10 A303 RMK A01 T01810104  RH  061%=      5-min Rain = 0
KMC6 211821Z 14008KT 18/10 A303 RMK A01 T01830104  RH  060%=      5-min Rain = 0
KMC6 211822Z 15006KT 18/10 A303 RMK A01 T01820104  RH  060%=      5-min Rain = 0
KMC6 211823Z 16007KT 18/10 A303 RMK A01 T01820104  RH  060%=      5-min Rain = 0
KMC6 211824Z 16008KT 18/10 A303 RMK A01 T01810103  RH  060%=      5-min Rain = 0
KMC6 211825Z 16008KT 18/10 A303 RMK A01 T01810104  RH  061%=      5-min Rain = 0
KMC6 211826Z 13008KT 18/11 A303 RMK A01 T01840106  RH  060%=      5-min Rain = 0
KMC6 211827Z 11006KT 19/10 A303 RMK A01 T01850104  RH  059%=      5-min Rain = 0
KMC6 211828Z 11004KT 18/10 A303 RMK A01 T01830104  RH  060%=      5-min Rain = 0
KMC6 211829Z 14004KT 18/10 A303 RMK A01 T01830103  RH  060%=      5-min Rain = 0
KMC6 211830Z 17008KT 18/10 A303 RMK A01 T01830104  RH  060%=      5-min Rain = 0
KMC6 211831Z 16006KT 18/10 A3029 RMK A01 T01810103  RH  060%=      5-min Rain = 0
KMC6 211832Z 17007KT 18/10 A3029 RMK A01 T01790103  RH  061%=      5-min Rain = 0
KMC6 211833Z 16006KT 18/10 A3029 RMK A01 T01770102  RH  061%=      5-min Rain = 0
KMC6 211834Z 17005KT 18/10 A3029 RMK A01 T01760102  RH  062%=      5-min Rain = 0
KMC6 211835Z 15004KT 18/10 A3029 RMK A01 T01760103  RH  062%=      5-min Rain = 0
KMC6 211836Z 13003KT 18/10 A3029 RMK A01 T01780103  RH  062%=      5-min Rain = 0
KMC6 211837Z 15004G11KT 18/10 A3029 RMK A01 T01790103  RH  061%=      5-min Rain = 0
KMC6 211838Z 18010KT 18/10 A3028 RMK A01 T01800104  RH  061%=      5-min Rain = 0
KMC6 211839Z 16010KT 18/11 A3028 RMK A01 T01810105  RH  061%=      5-min Rain = 0
KMC6 211840Z 15009KT 18/10 A3029 RMK A01 T01810104  RH  060%=      5-min Rain = 0
KMC6 211841Z 15007KT 18/10 A3028 RMK A01 T01800104  RH  061%=      5-min Rain = 0
KMC6 211842Z 15006KT 18/10 A3028 RMK A01 T01800104  RH  061%=      5-min Rain = 0
KMC6 211843Z 15006KT 18/10 A3028 RMK A01 T01810104  RH  061%=      5-min Rain = 0
KMC6 211844Z 16007KT 18/10 A3028 RMK A01 T01820104  RH  061%=      5-min Rain = 0
KMC6 211845Z 18008KT 18/11 A3028 RMK A01 T01830105  RH  060%=      5-min Rain = 0
KMC6 211846Z 19009KT 18/11 A3028 RMK A01 T01840106  RH  060%=      5-min Rain = 0
KMC6 211847Z 20007KT 19/11 A3028 RMK A01 T01850106  RH  060%=      5-min Rain = 0
KMC6 211848Z 17006KT 19/11 A3028 RMK A01 T01850106  RH  060%=      5-min Rain = 0
KMC6 211849Z 16005KT 19/10 A3028 RMK A01 T01850104  RH  059%=      5-min Rain = 0
KMC6 211850Z 15006KT 18/11 A3028 RMK A01 T01830105  RH  060%=      5-min Rain = 0
KMC6 211851Z 15005KT 18/10 A3028 RMK A01 T01820104  RH  060%=      5-min Rain = 0
KMC6 211852Z 16007KT 18/10 A3028 RMK A01 T01810104  RH  061%=      5-min Rain = 0
KMC6 211853Z 17008KT 18/11 A3028 RMK A01 T01810105  RH  061%=      5-min Rain = 0
KMC6 211854Z 16008KT 18/11 A3028 RMK A01 T01820105  RH  061%=      5-min Rain = 0
KMC6 211855Z 17007KT 18/11 A3028 RMK A01 T01830106  RH  061%=      5-min Rain = 0
KMC6 211856Z 18008KT 19/11 A3028 RMK A01 T01860107  RH  060%=      5-min Rain = 0
KMC6 211857Z 18007G14KT 19/11 A3028 RMK A01 T01880108  RH  060%=      5-min Rain = 0
KMC6 211858Z 16010KT 19/11 A3028 RMK A01 T01910109  RH  059%=      5-min Rain = 0
KMC6 211859Z 16007KT 19/11 A3028 RMK A01 T01900107  RH  059%=      5-min Rain = 0
KMC6 211900Z 15008KT 19/11 A3028 RMK A01 T01900108  RH  059%=      5-min Rain = 0
KMC6 211901Z 15007KT 19/11 A3028 RMK A01 T01890106  RH  058%=      5-min Rain = 0
KMC6 211902Z 15008KT 19/11 A3028 RMK A01 T01890107  RH  059%=      5-min Rain = 0
KMC6 211903Z 17008KT 19/11 A3028 RMK A01 T01870106  RH  059%=      5-min Rain = 0
KMC6 211904Z 16006KT 19/11 A3028 RMK A01 T01860106  RH  060%=      5-min Rain = 0
KMC6 211905Z 16003KT 18/11 A3028 RMK A01 T01840105  RH  060%=      5-min Rain = 0
KMC6 211906Z 17005KT 18/11 A3027 RMK A01 T01830105  RH  060%=      5-min Rain = 0
KMC6 211907Z 16007KT 18/11 A3027 RMK A01 T01830105  RH  060%=      5-min Rain = 0
KMC6 211908Z 17005KT 18/11 A3027 RMK A01 T01840107  RH  061%=      5-min Rain = 0
KMC6 211909Z 16004KT 19/11 A3027 RMK A01 T01850106  RH  060%=      5-min Rain = 0
KMC6 211910Z 13006KT 19/11 A3027 RMK A01 T01860107  RH  060%=      5-min Rain = 0
KMC6 211911Z 15005KT 19/11 A3027 RMK A01 T01880107  RH  059%=      5-min Rain = 0
KMC6 211912Z 16004KT 19/11 A3027 RMK A01 T01900108  RH  059%=      5-min Rain = 0
KMC6 211913Z 14007KT 19/11 A3027 RMK A01 T01910108  RH  059%=      5-min Rain = 0
KMC6 211914Z 16009KT 20/11 A3027 RMK A01 T01950109  RH  058%=      5-min Rain = 0
KMC6 211915Z 16008KT 20/11 A3027 RMK A01 T01950109  RH  057%=      5-min Rain = 0
KMC6 211916Z 15007KT 19/11 A3027 RMK A01 T01930108  RH  058%=      5-min Rain = 0
KMC6 211917Z 20009KT 19/11 A3027 RMK A01 T01930109  RH  058%=      5-min Rain = 0
KMC6 211918Z 19010KT 20/11 A3027 RMK A01 T01950109  RH  058%=      5-min Rain = 0
KMC6 211919Z 18008KT 20/11 A3027 RMK A01 T01960109  RH  057%=      5-min Rain = 0
KMC6 211920Z 20005KT 20/11 A3026 RMK A01 T01950107  RH  057%=      5-min Rain = 0
KMC6 211921Z 17005KT 19/11 A3026 RMK A01 T01920107  RH  058%=      5-min Rain = 0
KMC6 211922Z 16005KT 19/11 A3026 RMK A01 T01910107  RH  058%=      5-min Rain = 0
KMC6 211923Z 18007G12KT 19/11 A3026 RMK A01 T01910107  RH  058%=      5-min Rain = 0
KMC6 211924Z 19011KT 19/11 A3026 RMK A01 T01920108  RH  058%=      5-min Rain = 0
KMC6 211925Z 16009KT 19/11 A3026 RMK A01 T01920107  RH  058%=      5-min Rain = 0
KMC6 211926Z 16008KT 19/11 A3026 RMK A01 T01900107  RH  058%=      5-min Rain = 0
KMC6 211927Z 14005KT 19/11 A3026 RMK A01 T01900107  RH  058%=      5-min Rain = 0
KMC6 211928Z 16005KT 19/11 A3026 RMK A01 T01910107  RH  058%=      5-min Rain = 0
KMC6 211929Z 16006KT 19/11 A3026 RMK A01 T01910107  RH  058%=      5-min Rain = 0
KMC6 211930Z 17008KT 19/11 A3026 RMK A01 T01920107  RH  058%=      5-min Rain = 0
KMC6 211931Z 16010KT 19/11 A3026 RMK A01 T01930107  RH  057%=      5-min Rain = 0
KMC6 211932Z 13008KT 19/11 A3026 RMK A01 T01920106  RH  057%=      5-min Rain = 0
KMC6 211933Z 12005KT 19/11 A3025 RMK A01 T01900105  RH  058%=      5-min Rain = 0
KMC6 211934Z 14004KT 19/11 A3025 RMK A01 T01870106  RH  059%=      5-min Rain = 0
KMC6 211935Z 17009KT 19/11 A3025 RMK A01 T01890107  RH  059%=      5-min Rain = 0
KMC6 211936Z 17008KT 19/11 A3025 RMK A01 T01910107  RH  058%=      5-min Rain = 0
KMC6 211937Z 16007KT 19/11 A3025 RMK A01 T01910106  RH  058%=      5-min Rain = 0
KMC6 211938Z 14008KT 19/11 A3025 RMK A01 T01910107  RH  058%=      5-min Rain = 0
KMC6 211939Z 15007KT 19/11 A3025 RMK A01 T01920107  RH  058%=      5-min Rain = 0
KMC6 211940Z 17007KT 19/11 A3025 RMK A01 T01920108  RH  058%=      5-min Rain = 0
KMC6 211941Z 17009KT 19/11 A3025 RMK A01 T01940108  RH  058%=      5-min Rain = 0
KMC6 211942Z 18008KT 19/11 A3025 RMK A01 T01940108  RH  057%=      5-min Rain = 0
KMC6 211943Z 17008KT 19/11 A3025 RMK A01 T01940108  RH  058%=      5-min Rain = 0
KMC6 211944Z 17010KT 19/11 A3025 RMK A01 T01930108  RH  058%=      5-min Rain = 0
KMC6 211945Z 16009KT 19/11 A3025 RMK A01 T01920108  RH  058%=      5-min Rain = 0
KMC6 211946Z 15012KT 19/11 A3025 RMK A01 T01920107  RH  058%=      5-min Rain = 0
KMC6 211947Z 15010KT 19/11 A3025 RMK A01 T01910107  RH  058%=      5-min Rain = 0
KMC6 211948Z 15009KT 19/11 A3025 RMK A01 T01900106  RH  058%=      5-min Rain = 0
KMC6 211949Z 16010KT 19/11 A3024 RMK A01 T01880106  RH  059%=      5-min Rain = 0
KMC6 211950Z 15009KT 19/11 A3024 RMK A01 T01880106  RH  059%=      5-min Rain = 0
KMC6 211951Z 15009KT 19/11 A3024 RMK A01 T01890106  RH  059%=      5-min Rain = 0
KMC6 211952Z 17011KT 19/11 A3024 RMK A01 T01910107  RH  058%=      5-min Rain = 0
KMC6 211953Z 17010KT 19/11 A3024 RMK A01 T01900106  RH  058%=      5-min Rain = 0
KMC6 211954Z 17011KT 19/11 A3024 RMK A01 T01880106  RH  059%=      5-min Rain = 0
KMC6 211955Z 16008KT 19/11 A3024 RMK A01 T01880106  RH  059%=      5-min Rain = 0
KMC6 211956Z 15008KT 19/11 A3024 RMK A01 T01870106  RH  059%=      5-min Rain = 0
KMC6 211957Z 16009KT 19/11 A3024 RMK A01 T01870106  RH  059%=      5-min Rain = 0
KMC6 211958Z 17008KT 19/11 A3024 RMK A01 T01870106  RH  059%=      5-min Rain = 0
KMC6 211959Z 16007G12KT 19/11 A3024 RMK A01 T01860106  RH  060%=      5-min Rain = 0
KMC6 212000Z 17011KT 19/11 A3024 RMK A01 T01860106  RH  060%=      5-min Rain = 0
KMC6 212001Z 16008KT 19/11 A3024 RMK A01 T01870107  RH  059%=      5-min Rain = 0
KMC6 212002Z 15010KT 19/11 A3024 RMK A01 T01860106  RH  060%=      5-min Rain = 0
KMC6 212003Z 15010KT 19/11 A3024 RMK A01 T01860106  RH  060%=      5-min Rain = 0
KMC6 212004Z 15008KT 19/11 A3024 RMK A01 T01850106  RH  060%=      5-min Rain = 0
KMC6 212005Z 14010KT 18/11 A3024 RMK A01 T01840106  RH  060%=      5-min Rain = 0
KMC6 212006Z 17010KT 19/11 A3024 RMK A01 T01850106  RH  060%=      5-min Rain = 0
KMC6 212007Z 15009KT 19/11 A3024 RMK A01 T01860106  RH  060%=      5-min Rain = 0
KMC6 212008Z 15009KT 19/11 A3024 RMK A01 T01860107  RH  060%=      5-min Rain = 0
KMC6 212009Z 14009KT 19/11 A3024 RMK A01 T01860107  RH  060%=      5-min Rain = 0
KMC6 212010Z 15009KT 19/11 A3024 RMK A01 T01870107  RH  059%=      5-min Rain = 0
KMC6 212011Z 16009KT 19/11 A3024 RMK A01 T01880107  RH  059%=      5-min Rain = 0
KMC6 212012Z 15009KT 19/11 A3024 RMK A01 T01880107  RH  059%=      5-min Rain = 0
KMC6 212013Z 16009KT 19/11 A3024 RMK A01 T01900108  RH  059%=      5-min Rain = 0
KMC6 212014Z 16010KT 19/11 A3024 RMK A01 T01930108  RH  058%=      5-min Rain = 0
KMC6 212015Z 14011KT 19/11 A3024 RMK A01 T01910108  RH  058%=      5-min Rain = 0
KMC6 212016Z 16011KT 19/11 A3024 RMK A01 T01900108  RH  059%=      5-min Rain = 0
KMC6 212017Z 16008KT 19/11 A3024 RMK A01 T01890107  RH  059%=      5-min Rain = 0
KMC6 212018Z 17008KT 19/11 A3024 RMK A01 T01880108  RH  060%=      5-min Rain = 0
KMC6 212019Z 16008KT 19/11 A3024 RMK A01 T01910109  RH  059%=      5-min Rain = 0
KMC6 212020Z 15008KT 19/11 A3024 RMK A01 T01920109  RH  058%=      5-min Rain = 0
KMC6 212021Z 15008KT 19/11 A3024 RMK A01 T01930109  RH  058%=      5-min Rain = 0
KMC6 212022Z 15010KT 19/11 A3024 RMK A01 T01930109  RH  058%=      5-min Rain = 0
KMC6 212023Z 16011KT 19/11 A3024 RMK A01 T01920108  RH  058%=      5-min Rain = 0
KMC6 212024Z 15010KT 19/11 A3024 RMK A01 T01900107  RH  059%=      5-min Rain = 0
KMC6 212025Z 15009KT 19/11 A3024 RMK A01 T01900107  RH  059%=      5-min Rain = 0
KMC6 212026Z 15007KT 19/11 A3024 RMK A01 T01880106  RH  059%=      5-min Rain = 0
KMC6 212027Z 17009KT 19/11 A3024 RMK A01 T01870107  RH  059%=      5-min Rain = 0
KMC6 212028Z 17010KT 19/11 A3024 RMK A01 T01880107  RH  059%=      5-min Rain = 0
KMC6 212029Z 17008KT 19/11 A3024 RMK A01 T01880107  RH  059%=      5-min Rain = 0
KMC6 212030Z 18009KT 19/11 A3024 RMK A01 T01880108  RH  060%=      5-min Rain = 0
KMC6 212031Z 18009KT 19/11 A3024 RMK A01 T01890108  RH  059%=      5-min Rain = 0
KMC6 212032Z 18010KT 19/11 A3024 RMK A01 T01880108  RH  060%=      5-min Rain = 0
KMC6 212033Z 18011KT 19/11 A3024 RMK A01 T01890108  RH  059%=      5-min Rain = 0
KMC6 212034Z 18009KT 19/11 A3024 RMK A01 T01900108  RH  059%=      5-min Rain = 0
KMC6 212035Z 16009G14KT 19/11 A3024 RMK A01 T01910110  RH  059%=      5-min Rain = 0
KMC6 212036Z 16011KT 19/11 A3023 RMK A01 T01930109  RH  058%=      5-min Rain = 0
KMC6 212037Z 16010KT 19/11 A3023 RMK A01 T01940110  RH  058%=      5-min Rain = 0
KMC6 212038Z 15009KT 19/11 A3023 RMK A01 T01930109  RH  058%=      5-min Rain = 0
KMC6 212039Z 14011KT 19/11 A3023 RMK A01 T01920109  RH  058%=      5-min Rain = 0
KMC6 212040Z 15009KT 19/11 A3023 RMK A01 T01920109  RH  058%=      5-min Rain = 0
KMC6 212041Z 14010KT 19/11 A3023 RMK A01 T01930109  RH  058%=      5-min Rain = 0
KMC6 212042Z 15010KT 19/11 A3023 RMK A01 T01930109  RH  058%=      5-min Rain = 0
KMC6 212043Z 17008KT 19/11 A3023 RMK A01 T01930109  RH  058%=      5-min Rain = 0
KMC6 212044Z 17008KT 19/11 A3023 RMK A01 T01930109  RH  058%=      5-min Rain = 0
KMC6 212045Z 19009KT 20/11 A3023 RMK A01 T01950110  RH  058%=      5-min Rain = 0
KMC6 212046Z 17010KT 20/11 A3023 RMK A01 T01960109  RH  057%=      5-min Rain = 0
KMC6 212047Z 17009KT 20/11 A3023 RMK A01 T01960109  RH  057%=      5-min Rain = 0
KMC6 212048Z 17008KT 20/11 A3023 RMK A01 T01960109  RH  057%=      5-min Rain = 0
KMC6 212049Z 17007KT 19/11 A3023 RMK A01 T01940108  RH  057%=      5-min Rain = 0
KMC6 212050Z 17009KT 19/11 A3023 RMK A01 T01930108  RH  058%=      5-min Rain = 0
KMC6 212051Z 17008KT 19/11 A3023 RMK A01 T01900107  RH  058%=      5-min Rain = 0
KMC6 212052Z 17008G13KT 19/11 A3023 RMK A01 T01880107  RH  059%=      5-min Rain = 0
KMC6 212053Z 16012KT 19/11 A3023 RMK A01 T01890108  RH  059%=      5-min Rain = 0
KMC6 212054Z 16011KT 19/11 A3023 RMK A01 T01910108  RH  059%=      5-min Rain = 0
KMC6 212055Z 15007KT 19/11 A3023 RMK A01 T01910108  RH  059%=      5-min Rain = 0
KMC6 212056Z 17009KT 19/11 A3022 RMK A01 T01910108  RH  059%=      5-min Rain = 0
KMC6 212057Z 19010G15KT 19/11 A3022 RMK A01 T01920108  RH  058%=      5-min Rain = 0
KMC6 212058Z 17011KT 19/11 A3022 RMK A01 T01920109  RH  059%=      5-min Rain = 0
KMC6 212059Z 15011KT 19/11 A3022 RMK A01 T01930109  RH  058%=      5-min Rain = 0
KMC6 212100Z 17011KT 20/11 A3022 RMK A01 T01950109  RH  058%=      5-min Rain = 0
KMC6 212101Z 17009KT 20/11 A3022 RMK A01 T01960110  RH  057%=      5-min Rain = 0
KMC6 212102Z 16011KT 20/11 A3022 RMK A01 T01980110  RH  057%=      5-min Rain = 0
KMC6 212103Z 15008KT 20/11 A3022 RMK A01 T01970110  RH  057%=      5-min Rain = 0
KMC6 212104Z 16009KT 20/11 A3022 RMK A01 T01970110  RH  057%=      5-min Rain = 0
KMC6 212105Z 18009KT 20/11 A3022 RMK A01 T01970109  RH  057%=      5-min Rain = 0
KMC6 212106Z 18010KT 19/11 A3022 RMK A01 T01940108  RH  058%=      5-min Rain = 0
KMC6 212107Z 16010KT 19/11 A3022 RMK A01 T01910108  RH  058%=      5-min Rain = 0
KMC6 212108Z 16009KT 19/11 A3022 RMK A01 T01910109  RH  059%=      5-min Rain = 0
KMC6 212109Z 16011KT 19/11 A3022 RMK A01 T01920109  RH  059%=      5-min Rain = 0
KMC6 212110Z 16010KT 19/11 A3022 RMK A01 T01920109  RH  059%=      5-min Rain = 0
KMC6 212111Z 14011KT 19/11 A3022 RMK A01 T01920110  RH  059%=      5-min Rain = 0
KMC6 212112Z 16013KT 19/11 A3022 RMK A01 T01930110  RH  059%=      5-min Rain = 0
KMC6 212113Z 16011KT 19/11 A3023 RMK A01 T01920109  RH  059%=      5-min Rain = 0
KMC6 212114Z 16010KT 19/11 A3022 RMK A01 T01910109  RH  059%=      5-min Rain = 0
KMC6 212115Z 16008KT 19/11 A3023 RMK A01 T01910110  RH  059%=      5-min Rain = 0
KMC6 212116Z 16008KT 19/11 A3023 RMK A01 T01930110  RH  059%=      5-min Rain = 0
KMC6 212117Z 19011KT 19/11 A3022 RMK A01 T01920109  RH  059%=      5-min Rain = 0
KMC6 212118Z 18010KT 19/11 A3023 RMK A01 T01930109  RH  058%=      5-min Rain = 0
KMC6 212119Z 18010KT 19/11 A3023 RMK A01 T01930109  RH  058%=      5-min Rain = 0
KMC6 212120Z 17009KT 19/11 A3023 RMK A01 T01920109  RH  058%=      5-min Rain = 0
KMC6 212121Z 17010KT 19/11 A3023 RMK A01 T01910108  RH  059%=      5-min Rain = 0
KMC6 212122Z 18009KT 19/11 A3023 RMK A01 T01910109  RH  059%=      5-min Rain = 0
KMC6 212123Z 18011KT 19/11 A3023 RMK A01 T01920109  RH  059%=      5-min Rain = 0
KMC6 212124Z 18008KT 19/11 A3023 RMK A01 T01920110  RH  059%=      5-min Rain = 0
KMC6 212125Z 18008KT 19/11 A3023 RMK A01 T01920110  RH  059%=      5-min Rain = 0
KMC6 212126Z 16008KT 19/11 A3023 RMK A01 T01920110  RH  059%=      5-min Rain = 0
KMC6 212127Z 16007KT 19/11 A3023 RMK A01 T01920110  RH  059%=      5-min Rain = 0
KMC6 212128Z 14008KT 19/11 A3022 RMK A01 T01920110  RH  059%=      5-min Rain = 0
KMC6 212129Z 18013KT 19/11 A3022 RMK A01 T01940110  RH  058%=      5-min Rain = 0
KMC6 212130Z 17012KT 19/11 A3022 RMK A01 T01940110  RH  058%=      5-min Rain = 0
KMC6 212131Z 17012KT 19/11 A3022 RMK A01 T01930109  RH  058%=      5-min Rain = 0
KMC6 212132Z 16011KT 19/11 A3022 RMK A01 T01920110  RH  059%=      5-min Rain = 0
KMC6 212133Z 16009KT 19/11 A3022 RMK A01 T01920110  RH  059%=      5-min Rain = 0
KMC6 212134Z 18010KT 19/11 A3022 RMK A01 T01920110  RH  059%=      5-min Rain = 0
KMC6 212135Z 18011KT 19/11 A3022 RMK A01 T01930110  RH  059%=      5-min Rain = 0
KMC6 212136Z 17011KT 19/11 A3022 RMK A01 T01930111  RH  059%=      5-min Rain = 0
KMC6 212137Z 18012KT 19/11 A3022 RMK A01 T01900111  RH  060%=      5-min Rain = 0
KMC6 212138Z 18009KT 19/11 A3022 RMK A01 T01900111  RH  060%=      5-min Rain = 0
KMC6 212139Z 18010KT 19/11 A3022 RMK A01 T01900111  RH  060%=      5-min Rain = 0
KMC6 212140Z 18011KT 19/11 A3022 RMK A01 T01910112  RH  060%=      5-min Rain = 0
KMC6 212141Z 18011KT 19/11 A3022 RMK A01 T01930112  RH  060%=      5-min Rain = 0
KMC6 212142Z 18012KT 19/11 A3022 RMK A01 T01920112  RH  060%=      5-min Rain = 0
KMC6 212143Z 18011KT 19/11 A3022 RMK A01 T01920112  RH  060%=      5-min Rain = 0
KMC6 212144Z 19012KT 19/11 A3022 RMK A01 T01930112  RH  060%=      5-min Rain = 0
KMC6 212145Z 18011KT 19/11 A3022 RMK A01 T01930112  RH  059%=      5-min Rain = 0
KMC6 212146Z 18009KT 19/11 A3022 RMK A01 T01930112  RH  059%=      5-min Rain = 0
KMC6 212147Z 18010KT 19/11 A3021 RMK A01 T01920112  RH  060%=      5-min Rain = 0
KMC6 212148Z 18012KT 19/11 A3021 RMK A01 T01920112  RH  060%=      5-min Rain = 0
KMC6 212149Z 18012KT 19/11 A3021 RMK A01 T01900112  RH  061%=      5-min Rain = 0
KMC6 212150Z 18012KT 19/11 A3021 RMK A01 T01900113  RH  061%=      5-min Rain = 0
KMC6 212151Z 17014KT 19/11 A3021 RMK A01 T01900114  RH  061%=      5-min Rain = 0
KMC6 212152Z 17013KT 19/11 A3021 RMK A01 T01900114  RH  061%=      5-min Rain = 0
KMC6 212153Z 17013KT 19/11 A3021 RMK A01 T01890114  RH  062%=      5-min Rain = 0
KMC6 212154Z 19012KT 19/11 A3021 RMK A01 T01880114  RH  062%=      5-min Rain = 0
KMC6 212155Z 18012KT 19/11 A3021 RMK A01 T01880114  RH  062%=      5-min Rain = 0
KMC6 212156Z 18012KT 19/11 A3021 RMK A01 T01880114  RH  062%=      5-min Rain = 0
KMC6 212157Z 18011KT 19/11 A3022 RMK A01 T01870114  RH  063%=      5-min Rain = 0
KMC6 212158Z 18012KT 19/11 A3022 RMK A01 T01860114  RH  063%=      5-min Rain = 0
KMC6 212159Z 20011KT 19/11 A3022 RMK A01 T01870114  RH  063%=      5-min Rain = 0
KMC6 212200Z 19009KT 19/11 A3022 RMK A01 T01860114  RH  063%=      5-min Rain = 0
KMC6 212201Z 19012KT 19/11 A3022 RMK A01 T01860114  RH  063%=      5-min Rain = 0
KMC6 212202Z 19011KT 19/11 A3022 RMK A01 T01860114  RH  063%=      5-min Rain = 0
KMC6 212203Z 19010KT 19/12 A3022 RMK A01 T01860115  RH  063%=      5-min Rain = 0
KMC6 212204Z 19013KT 19/12 A3022 RMK A01 T01880115  RH  063%=      5-min Rain = 0
KMC6 212205Z 19010KT 19/12 A3022 RMK A01 T01860115  RH  063%=      5-min Rain = 0
KMC6 212206Z 18013KT 18/12 A3021 RMK A01 T01840115  RH  064%=      5-min Rain = 0
KMC6 212207Z 18012KT 18/12 A3021 RMK A01 T01840115  RH  064%=      5-min Rain = 0
KMC6 212208Z 19011KT 18/12 A3021 RMK A01 T01830115  RH  064%=      5-min Rain = 0
KMC6 212209Z 19011KT 18/12 A3021 RMK A01 T01830115  RH  064%=      5-min Rain = 0
KMC6 212210Z 18013KT 18/12 A3021 RMK A01 T01830115  RH  064%=      5-min Rain = 0
KMC6 212211Z 19012KT 18/12 A3021 RMK A01 T01820115  RH  065%=      5-min Rain = 0
KMC6 212212Z 19011KT 18/12 A3021 RMK A01 T01820115  RH  065%=      5-min Rain = 0
KMC6 212213Z 19012KT 18/12 A3021 RMK A01 T01830115  RH  065%=      5-min Rain = 0
KMC6 212214Z 18011KT 18/12 A3021 RMK A01 T01820115  RH  065%=      5-min Rain = 0
KMC6 212215Z 18011KT 18/12 A3021 RMK A01 T01820115  RH  065%=      5-min Rain = 0
KMC6 212216Z 18010KT 18/12 A3021 RMK A01 T01820115  RH  065%=      5-min Rain = 0
KMC6 212217Z 19012KT 18/12 A3021 RMK A01 T01820115  RH  065%=      5-min Rain = 0
KMC6 212218Z 18012KT 18/12 A3021 RMK A01 T01810115  RH  065%=      5-min Rain = 0
KMC6 212219Z 19012KT 18/12 A3021 RMK A01 T01810115  RH  065%=      5-min Rain = 0
KMC6 212220Z 19010KT 18/12 A3021 RMK A01 T01820115  RH  065%=      5-min Rain = 0
KMC6 212221Z 19009KT 18/12 A3022 RMK A01 T01820115  RH  065%=      5-min Rain = 0
KMC6 212222Z 19010KT 18/12 A3022 RMK A01 T01840116  RH  064%=      5-min Rain = 0
KMC6 212223Z 20010KT 18/12 A3022 RMK A01 T01830116  RH  065%=      5-min Rain = 0
KMC6 212224Z 20010KT 18/12 A3022 RMK A01 T01810115  RH  065%=      5-min Rain = 0
KMC6 212225Z 19009KT 18/12 A3022 RMK A01 T01810115  RH  065%=      5-min Rain = 0
KMC6 212226Z 20010KT 18/12 A3022 RMK A01 T01830115  RH  065%=      5-min Rain = 0
KMC6 212227Z 19012KT 18/12 A3022 RMK A01 T01830115  RH  064%=      5-min Rain = 0
KMC6 212228Z 19011KT 18/12 A3022 RMK A01 T01830115  RH  065%=      5-min Rain = 0
KMC6 212229Z 18009KT 18/12 A3022 RMK A01 T01820115  RH  065%=      5-min Rain = 0
KMC6 212230Z 20009KT 18/12 A3022 RMK A01 T01810115  RH  065%=      5-min Rain = 0
KMC6 212231Z 21009KT 18/12 A3022 RMK A01 T01820115  RH  065%=      5-min Rain = 0
KMC6 212232Z 19007KT 18/12 A3022 RMK A01 T01810115  RH  065%=      5-min Rain = 0
KMC6 212233Z 17009KT 18/12 A3022 RMK A01 T01810115  RH  065%=      5-min Rain = 0
KMC6 212234Z 17010KT 18/11 A3022 RMK A01 T01810114  RH  065%=      5-min Rain = 0
KMC6 212235Z 17009KT 18/11 A3022 RMK A01 T01810114  RH  065%=      5-min Rain = 0
KMC6 212236Z 16009KT 18/11 A3022 RMK A01 T01800114  RH  065%=      5-min Rain = 0
KMC6 212237Z 17009KT 18/12 A3022 RMK A01 T01800115  RH  066%=      5-min Rain = 0
KMC6 212238Z 19010KT 18/11 A3022 RMK A01 T01810114  RH  065%=      5-min Rain = 0
KMC6 212239Z 18009KT 18/11 A3022 RMK A01 T01810114  RH  065%=      5-min Rain = 0
KMC6 212240Z 19010KT 18/11 A3022 RMK A01 T01820114  RH  065%=      5-min Rain = 0
KMC6 212241Z 18010KT 18/11 A3022 RMK A01 T01820114  RH  064%=      5-min Rain = 0
KMC6 212242Z 18011KT 18/11 A3022 RMK A01 T01810114  RH  065%=      5-min Rain = 0
KMC6 212243Z 19011KT 18/11 A3022 RMK A01 T01800114  RH  065%=      5-min Rain = 0
KMC6 212244Z 18011KT 18/11 A3022 RMK A01 T01800114  RH  065%=      5-min Rain = 0
KMC6 212245Z 18009KT 18/11 A3022 RMK A01 T01780113  RH  066%=      5-min Rain = 0
KMC6 212246Z 18008KT 18/11 A3022 RMK A01 T01780113  RH  066%=      5-min Rain = 0
KMC6 212247Z 18008KT 18/11 A3022 RMK A01 T01780114  RH  066%=      5-min Rain = 0
KMC6 212248Z 18007KT 18/11 A3022 RMK A01 T01780114  RH  066%=      5-min Rain = 0
KMC6 212249Z 18008KT 18/11 A3022 RMK A01 T01790114  RH  066%=      5-min Rain = 0
KMC6 212250Z 17008KT 18/11 A3022 RMK A01 T01790114  RH  066%=      5-min Rain = 0
KMC6 212251Z 17006KT 18/11 A3022 RMK A01 T01800114  RH  065%=      5-min Rain = 0
KMC6 212252Z 16006KT 18/11 A3022 RMK A01 T01800114  RH  065%=      5-min Rain = 0
KMC6 212253Z 16007KT 18/11 A3022 RMK A01 T01790114  RH  066%=      5-min Rain = 0
KMC6 212254Z 17007KT 18/11 A3022 RMK A01 T01790114  RH  066%=      5-min Rain = 0
KMC6 212255Z 18005KT 18/11 A3022 RMK A01 T01790114  RH  065%=      5-min Rain = 0
KMC6 212256Z 18006KT 18/11 A3022 RMK A01 T01800114  RH  065%=      5-min Rain = 0
KMC6 212257Z 17005KT 18/11 A3022 RMK A01 T01810114  RH  065%=      5-min Rain = 0
KMC6 212258Z 16007KT 18/11 A3022 RMK A01 T01800114  RH  065%=      5-min Rain = 0
KMC6 212259Z 16007KT 18/11 A3022 RMK A01 T01800114  RH  065%=      5-min Rain = 0
KMC6 212300Z 16006KT 18/11 A3022 RMK A01 T01800114  RH  065%=      5-min Rain = 0
KMC6 212301Z 16006KT 18/11 A3022 RMK A01 T01800114  RH  065%=      5-min Rain = 0
KMC6 212302Z 16006KT 18/11 A3022 RMK A01 T01790113  RH  065%=      5-min Rain = 0
KMC6 212303Z 17006KT 18/11 A3022 RMK A01 T01790113  RH  065%=      5-min Rain = 0
KMC6 212304Z 16006KT 18/11 A3022 RMK A01 T01790113  RH  065%=      5-min Rain = 0
KMC6 212305Z 17005KT 18/11 A3022 RMK A01 T01790113  RH  065%=      5-min Rain = 0
KMC6 212306Z 17007KT 18/11 A3022 RMK A01 T01790113  RH  065%=      5-min Rain = 0
KMC6 212307Z 17008KT 18/11 A3022 RMK A01 T01780111  RH  065%=      5-min Rain = 0
KMC6 212308Z 17008KT 18/11 A3022 RMK A01 T01780110  RH  065%=      5-min Rain = 0
KMC6 212309Z 17008KT 18/11 A3022 RMK A01 T01780110  RH  065%=      5-min Rain = 0
KMC6 212310Z 16009KT 18/11 A3022 RMK A01 T01770110  RH  065%=      5-min Rain = 0
KMC6 212311Z 16008KT 18/11 A3022 RMK A01 T01770110  RH  065%=      5-min Rain = 0
KMC6 212312Z 17008KT 18/11 A3022 RMK A01 T01760110  RH  065%=      5-min Rain = 0
KMC6 212313Z 17008KT 18/11 A3022 RMK A01 T01760111  RH  065%=      5-min Rain = 0
KMC6 212314Z 18006KT 18/11 A3022 RMK A01 T01760111  RH  066%=      5-min Rain = 0
KMC6 212315Z 18007KT 18/11 A3022 RMK A01 T01750109  RH  065%=      5-min Rain = 0
KMC6 212316Z 17007KT 18/11 A3022 RMK A01 T01750110  RH  065%=      5-min Rain = 0
KMC6 212317Z 18006KT 18/11 A3021 RMK A01 T01750110  RH  065%=      5-min Rain = 0
KMC6 212318Z 18006KT 18/11 A3021 RMK A01 T01750109  RH  065%=      5-min Rain = 0
KMC6 212319Z 17005KT 17/11 A3021 RMK A01 T01740108  RH  065%=      5-min Rain = 0
KMC6 212320Z 17005KT 17/11 A3021 RMK A01 T01740109  RH  066%=      5-min Rain = 0
KMC6 212321Z 18005KT 17/11 A3021 RMK A01 T01730109  RH  066%=      5-min Rain = 0
KMC6 212322Z 18006KT 17/11 A3021 RMK A01 T01730108  RH  066%=      5-min Rain = 0
KMC6 212323Z 18006KT 17/11 A3021 RMK A01 T01730110  RH  067%=      5-min Rain = 0
KMC6 212324Z 18005KT 17/11 A3021 RMK A01 T01720109  RH  066%=      5-min Rain = 0
KMC6 212325Z 17005KT 17/11 A3021 RMK A01 T01720108  RH  066%=      5-min Rain = 0
KMC6 212326Z 17006KT 17/11 A3021 RMK A01 T01710109  RH  067%=      5-min Rain = 0
KMC6 212327Z 16006KT 17/11 A3021 RMK A01 T01700108  RH  067%=      5-min Rain = 0
KMC6 212328Z 17006KT 17/11 A3021 RMK A01 T01700108  RH  067%=      5-min Rain = 0
KMC6 212329Z 17006KT 17/11 A3021 RMK A01 T01690107  RH  067%=      5-min Rain = 0
KMC6 212330Z 17006KT 17/11 A3021 RMK A01 T01680107  RH  067%=      5-min Rain = 0
KMC6 212331Z 17006KT 17/11 A3021 RMK A01 T01680106  RH  067%=      5-min Rain = 0
KMC6 212332Z 17006KT 17/11 A3021 RMK A01 T01670106  RH  067%=      5-min Rain = 0
KMC6 212333Z 17007KT 17/11 A3021 RMK A01 T01670106  RH  067%=      5-min Rain = 0
KMC6 212334Z 18006KT 17/11 A3021 RMK A01 T01660106  RH  068%=      5-min Rain = 0
KMC6 212335Z 17006KT 17/11 A3021 RMK A01 T01650105  RH  067%=      5-min Rain = 0
KMC6 212336Z 17006KT 17/11 A3021 RMK A01 T01650105  RH  068%=      5-min Rain = 0
KMC6 212337Z 18006KT 16/10 A302 RMK A01 T01640104  RH  068%=      5-min Rain = 0
KMC6 212338Z 18006KT 16/10 A302 RMK A01 T01630104  RH  068%=      5-min Rain = 0
KMC6 212339Z 18006KT 16/10 A302 RMK A01 T01630104  RH  068%=      5-min Rain = 0
KMC6 212340Z 18006KT 16/10 A302 RMK A01 T01630104  RH  068%=      5-min Rain = 0
KMC6 212341Z 18006KT 16/10 A302 RMK A01 T01620104  RH  068%=      5-min Rain = 0
KMC6 212342Z 17005KT 16/10 A302 RMK A01 T01620104  RH  068%=      5-min Rain = 0
KMC6 212343Z 17006KT 16/10 A302 RMK A01 T01610104  RH  069%=      5-min Rain = 0
KMC6 212344Z 18005KT 16/10 A302 RMK A01 T01610103  RH  069%=      5-min Rain = 0
KMC6 212345Z 17005KT 16/10 A302 RMK A01 T01600104  RH  069%=      5-min Rain = 0
KMC6 212346Z 17005KT 16/10 A302 RMK A01 T01600103  RH  069%=      5-min Rain = 0
KMC6 212347Z 17004KT 16/10 A302 RMK A01 T01590102  RH  069%=      5-min Rain = 0
KMC6 212348Z 17004KT 16/10 A302 RMK A01 T01580102  RH  069%=      5-min Rain = 0
KMC6 212349Z 17004KT 16/10 A302 RMK A01 T01570101  RH  069%=      5-min Rain = 0
KMC6 212350Z 17004KT 16/10 A302 RMK A01 T01570101  RH  070%=      5-min Rain = 0
KMC6 212351Z 17003KT 16/10 A302 RMK A01 T01560101  RH  070%=      5-min Rain = 0
KMC6 212352Z 17003KT 16/10 A302 RMK A01 T01550101  RH  070%=      5-min Rain = 0
KMC6 212353Z 18002KT 16/10 A302 RMK A01 T01550101  RH  070%=      5-min Rain = 0
KMC6 212354Z 18002KT 15/10 A302 RMK A01 T01540101  RH  071%=      5-min Rain = 0
KMC6 212355Z 17003KT 15/10 A302 RMK A01 T01540101  RH  071%=      5-min Rain = 0
KMC6 212356Z 16003KT 15/10 A302 RMK A01 T01540102  RH  071%=      5-min Rain = 0
KMC6 212357Z 16004KT 15/10 A302 RMK A01 T01530103  RH  072%=      5-min Rain = 0
KMC6 212358Z 16003KT 15/10 A302 RMK A01 T01540102  RH  071%=      5-min Rain = 0
KMC6 212359Z 17003KT 15/10 A302 RMK A01 T01540102  RH  071%=      5-min Rain = 0
KMC6 220000Z 16003KT 15/10 A302 RMK A01 T01540102  RH  071%=      5-min Rain = 0
KMC6 220001Z 17003KT 15/10 A302 RMK A01 T01530100  RH  070%=      5-min Rain = 0
KMC6 220002Z 16003KT 15/10 A302 RMK A01 T01530101  RH  071%=      5-min Rain = 0
KMC6 220003Z 15004KT 15/10 A302 RMK A01 T01520102  RH  072%=      5-min Rain = 0
KMC6 220004Z 16004KT 15/10 A302 RMK A01 T01520102  RH  072%=      5-min Rain = 0
KMC6 220005Z 16003KT 15/10 A302 RMK A01 T01520100  RH  071%=      5-min Rain = 0
KMC6 220006Z 16003KT 15/10 A302 RMK A01 T01510100  RH  072%=      5-min Rain = 0
KMC6 220007Z 16003KT 15/10 A302 RMK A01 T01510100  RH  072%=      5-min Rain = 0
KMC6 220008Z 16003KT 15/10 A302 RMK A01 T01510100  RH  072%=      5-min Rain = 0
KMC6 220009Z 15003KT 15/10 A302 RMK A01 T01500100  RH  072%=      5-min Rain = 0
KMC6 220010Z 15002KT 15/10 A302 RMK A01 T01490100  RH  072%=      5-min Rain = 0
KMC6 220011Z 15003KT 15/10 A302 RMK A01 T01480101  RH  073%=      5-min Rain = 0
KMC6 220012Z 15003KT 15/10 A302 RMK A01 T01480102  RH  074%=      5-min Rain = 0
KMC6 220013Z 15003KT 15/10 A302 RMK A01 T01480102  RH  074%=      5-min Rain = 0
KMC6 220014Z 15002KT 15/10 A302 RMK A01 T01480102  RH  074%=      5-min Rain = 0
KMC6 220015Z 15002KT 15/10 A302 RMK A01 T01480102  RH  074%=      5-min Rain = 0
KMC6 220016Z 15002KT 15/10 A302 RMK A01 T01480102  RH  074%=      5-min Rain = 0
KMC6 220017Z 15002KT 15/10 A302 RMK A01 T01470102  RH  074%=      5-min Rain = 0
KMC6 220018Z 15003KT 15/10 A302 RMK A01 T01470102  RH  074%=      5-min Rain = 0
KMC6 220019Z 14002KT 15/10 A302 RMK A01 T01470102  RH  074%=      5-min Rain = 0
KMC6 220020Z 14002KT 15/10 A302 RMK A01 T01470102  RH  074%=      5-min Rain = 0
KMC6 220021Z 14002KT 15/10 A302 RMK A01 T01470102  RH  074%=      5-min Rain = 0
KMC6 220022Z 15003KT 15/10 A302 RMK A01 T01460102  RH  075%=      5-min Rain = 0
KMC6 220023Z 15002KT 15/10 A302 RMK A01 T01460102  RH  075%=      5-min Rain = 0
KMC6 220024Z 15003KT 15/10 A302 RMK A01 T01460101  RH  075%=      5-min Rain = 0
KMC6 220025Z 16003KT 15/10 A302 RMK A01 T01450101  RH  075%=      5-min Rain = 0
KMC6 220026Z 16003KT 15/10 A302 RMK A01 T01450101  RH  075%=      5-min Rain = 0
KMC6 220027Z 15003KT 15/10 A302 RMK A01 T01450102  RH  075%=      5-min Rain = 0
KMC6 220028Z 15004KT 15/10 A302 RMK A01 T01450102  RH  075%=      5-min Rain = 0
KMC6 220029Z 16004KT 15/10 A302 RMK A01 T01450102  RH  076%=      5-min Rain = 0
KMC6 220030Z 15004KT 15/10 A302 RMK A01 T01450102  RH  075%=      5-min Rain = 0
KMC6 220031Z 15004KT 15/10 A302 RMK A01 T01450102  RH  075%=      5-min Rain = 0
KMC6 220032Z 15004KT 15/10 A302 RMK A01 T01450101  RH  075%=      5-min Rain = 0
KMC6 220033Z 15004KT 15/10 A302 RMK A01 T01450101  RH  075%=      5-min Rain = 0
KMC6 220034Z 15004KT 15/10 A302 RMK A01 T01450100  RH  075%=      5-min Rain = 0
KMC6 220035Z 15004KT 14/10 A302 RMK A01 T01440100  RH  075%=      5-min Rain = 0
KMC6 220036Z 15004KT 14/10 A302 RMK A01 T01440099  RH  075%=      5-min Rain = 0
KMC6 220037Z 15004KT 14/10 A302 RMK A01 T01430098  RH  074%=      5-min Rain = 0
KMC6 220038Z 14004KT 14/10 A302 RMK A01 T01420098  RH  075%=      5-min Rain = 0
KMC6 220039Z 14004KT 14/10 A302 RMK A01 T01410098  RH  075%=      5-min Rain = 0
KMC6 220040Z 14004KT 14/10 A302 RMK A01 T01400097  RH  075%=      5-min Rain = 0
KMC6 220041Z 14004KT 14/10 A302 RMK A01 T01400096  RH  075%=      5-min Rain = 0
KMC6 220042Z 13004KT 14/09 A302 RMK A01 T01390094  RH  075%=      5-min Rain = 0
KMC6 220043Z 13004KT 14/09 A302 RMK A01 T01380094  RH  075%=      5-min Rain = 0
KMC6 220044Z 13004KT 14/09 A302 RMK A01 T01370094  RH  075%=      5-min Rain = 0
KMC6 220045Z 14005KT 14/09 A302 RMK A01 T01360094  RH  075%=      5-min Rain = 0
KMC6 220046Z 14005KT 14/10 A302 RMK A01 T01350095  RH  076%=      5-min Rain = 0
KMC6 220047Z 14005KT 14/10 A302 RMK A01 T01350095  RH  076%=      5-min Rain = 0
KMC6 220048Z 15005KT 14/10 A302 RMK A01 T01350095  RH  076%=      5-min Rain = 0
KMC6 220049Z 14004KT 14/10 A302 RMK A01 T01360097  RH  077%=      5-min Rain = 0
KMC6 220050Z 14005KT 14/10 A302 RMK A01 T01380098  RH  077%=      5-min Rain = 0
KMC6 220051Z 14005KT 14/10 A302 RMK A01 T01390097  RH  076%=      5-min Rain = 0
KMC6 220052Z 14005KT 14/10 A3021 RMK A01 T01400097  RH  075%=      5-min Rain = 0
KMC6 220053Z 14005KT 14/10 A3021 RMK A01 T01400095  RH  074%=      5-min Rain = 0
KMC6 220054Z 14005KT 14/09 A3021 RMK A01 T01390094  RH  075%=      5-min Rain = 0
KMC6 220055Z 13005KT 14/10 A3021 RMK A01 T01380096  RH  075%=      5-min Rain = 0
KMC6 220056Z 13005KT 14/10 A3021 RMK A01 T01390096  RH  075%=      5-min Rain = 0
KMC6 220057Z 13005KT 14/09 A3021 RMK A01 T01390094  RH  074%=      5-min Rain = 0
KMC6 220058Z 13005KT 14/09 A3021 RMK A01 T01380094  RH  075%=      5-min Rain = 0
KMC6 220059Z 13005KT 14/09 A3021 RMK A01 T01370093  RH  075%=      5-min Rain = 0
KMC6 220100Z 13005KT 14/09 A3021 RMK A01 T01360092  RH  075%=      5-min Rain = 0
KMC6 220101Z 13004KT 14/09 A3021 RMK A01 T01350092  RH  075%=      5-min Rain = 0
KMC6 220102Z 13005KT 13/09 A3021 RMK A01 T01340091  RH  075%=      5-min Rain = 0
KMC6 220103Z 12005KT 13/09 A3021 RMK A01 T01340090  RH  075%=      5-min Rain = 0
KMC6 220104Z 13005KT 13/09 A3021 RMK A01 T01330091  RH  075%=      5-min Rain = 0
KMC6 220105Z 13005KT 13/09 A3021 RMK A01 T01330091  RH  076%=      5-min Rain = 0
KMC6 220106Z 14005KT 13/09 A3021 RMK A01 T01330091  RH  075%=      5-min Rain = 0
KMC6 220107Z 13005KT 13/09 A3021 RMK A01 T01330091  RH  076%=      5-min Rain = 0
KMC6 220108Z 14004KT 13/09 A3021 RMK A01 T01330092  RH  076%=      5-min Rain = 0
KMC6 220109Z 13005KT 13/09 A3021 RMK A01 T01330092  RH  076%=      5-min Rain = 0
KMC6 220110Z 13004KT 13/09 A3021 RMK A01 T01330093  RH  076%=      5-min Rain = 0
KMC6 220111Z 13004KT 13/09 A3021 RMK A01 T01330093  RH  076%=      5-min Rain = 0
KMC6 220112Z 13004KT 13/09 A3021 RMK A01 T01330092  RH  076%=      5-min Rain = 0
KMC6 220113Z 13005KT 13/09 A3021 RMK A01 T01330091  RH  075%=      5-min Rain = 0
KMC6 220114Z 12004KT 13/09 A3021 RMK A01 T01330090  RH  075%=      5-min Rain = 0
KMC6 220115Z 12004KT 13/09 A3021 RMK A01 T01320090  RH  076%=      5-min Rain = 0
KMC6 220116Z 11004KT 13/09 A3021 RMK A01 T01310089  RH  076%=      5-min Rain = 0
KMC6 220117Z 12003KT 13/09 A3021 RMK A01 T01300085  RH  074%=      5-min Rain = 0
KMC6 220118Z 12004KT 13/09 A3021 RMK A01 T01280085  RH  075%=      5-min Rain = 0
KMC6 220119Z 12004KT 13/09 A3021 RMK A01 T01280087  RH  076%=      5-min Rain = 0
KMC6 220120Z 12004KT 13/09 A3021 RMK A01 T01280087  RH  076%=      5-min Rain = 0
KMC6 220121Z 12004KT 13/09 A3021 RMK A01 T01280088  RH  077%=      5-min Rain = 0
KMC6 220122Z 12004KT 13/09 A3021 RMK A01 T01290088  RH  076%=      5-min Rain = 0
KMC6 220123Z 12004KT 13/09 A3021 RMK A01 T01290088  RH  076%=      5-min Rain = 0
KMC6 220124Z 12004KT 13/09 A3021 RMK A01 T01290088  RH  076%=      5-min Rain = 0
KMC6 220125Z 12004KT 13/09 A3021 RMK A01 T01290088  RH  076%=      5-min Rain = 0
KMC6 220126Z 12004KT 13/09 A3021 RMK A01 T01290088  RH  076%=      5-min Rain = 0
KMC6 220127Z 11004KT 13/09 A3021 RMK A01 T01280086  RH  076%=      5-min Rain = 0
KMC6 220128Z 11004KT 13/09 A3021 RMK A01 T01270087  RH  076%=      5-min Rain = 0
KMC6 220129Z 12004KT 13/09 A3021 RMK A01 T01270088  RH  077%=      5-min Rain = 0
KMC6 220130Z 11004KT 13/09 A3021 RMK A01 T01270089  RH  078%=      5-min Rain = 0
KMC6 220131Z 12003KT 13/09 A3021 RMK A01 T01270089  RH  078%=      5-min Rain = 0
KMC6 220132Z 11003KT 13/09 A3021 RMK A01 T01270090  RH  078%=      5-min Rain = 0
KMC6 220133Z 10004KT 13/09 A3021 RMK A01 T01270090  RH  078%=      5-min Rain = 0
KMC6 220134Z 10004KT 13/09 A3021 RMK A01 T01270090  RH  078%=      5-min Rain = 0
KMC6 220135Z 10004KT 13/09 A3021 RMK A01 T01270091  RH  079%=      5-min Rain = 0
KMC6 220136Z 09004KT 13/09 A3021 RMK A01 T01280092  RH  079%=      5-min Rain = 0
KMC6 220137Z 09004KT 13/09 A3021 RMK A01 T01270090  RH  078%=      5-min Rain = 0
KMC6 220138Z 09004KT 13/09 A3021 RMK A01 T01270089  RH  078%=      5-min Rain = 0
KMC6 220139Z 09004KT 13/09 A3021 RMK A01 T01270090  RH  078%=      5-min Rain = 0
KMC6 220140Z 09004KT 13/09 A3021 RMK A01 T01270089  RH  077%=      5-min Rain = 0
KMC6 220141Z 10004KT 13/09 A3021 RMK A01 T01270089  RH  078%=      5-min Rain = 0
KMC6 220142Z 09004KT 13/09 A3021 RMK A01 T01260089  RH  078%=      5-min Rain = 0
KMC6 220143Z 09005KT 13/09 A3021 RMK A01 T01260091  RH  079%=      5-min Rain = 0
KMC6 220144Z 09004KT 13/09 A3021 RMK A01 T01260092  RH  080%=      5-min Rain = 0
KMC6 220145Z 09004KT 13/09 A3021 RMK A01 T01260092  RH  080%=      5-min Rain = 0
KMC6 220146Z 09004KT 13/09 A3021 RMK A01 T01270093  RH  080%=      5-min Rain = 0
KMC6 220147Z 10004KT 13/09 A3021 RMK A01 T01270093  RH  080%=      5-min Rain = 0
KMC6 220148Z 10004KT 13/09 A3021 RMK A01 T01270093  RH  080%=      5-min Rain = 0
KMC6 220149Z 10005KT 13/09 A3021 RMK A01 T01280094  RH  080%=      5-min Rain = 0
KMC6 220150Z 10005KT 13/10 A3021 RMK A01 T01280096  RH  081%=      5-min Rain = 0
KMC6 220151Z 10005KT 13/10 A3021 RMK A01 T01280096  RH  081%=      5-min Rain = 0
KMC6 220152Z 10005KT 13/10 A3021 RMK A01 T01290097  RH  081%=      5-min Rain = 0
KMC6 220153Z 10005KT 13/10 A3021 RMK A01 T01290098  RH  081%=      5-min Rain = 0
KMC6 220154Z 10005KT 13/10 A3021 RMK A01 T01300097  RH  081%=      5-min Rain = 0
KMC6 220155Z 10005KT 13/10 A3021 RMK A01 T01300097  RH  080%=      5-min Rain = 0
KMC6 220156Z 10006KT 13/10 A3021 RMK A01 T01300095  RH  079%=      5-min Rain = 0
KMC6 220157Z 10006KT 13/09 A3021 RMK A01 T01300093  RH  078%=      5-min Rain = 0
KMC6 220158Z 10006KT 13/10 A3021 RMK A01 T01290095  RH  080%=      5-min Rain = 0
KMC6 220159Z 10006KT 13/09 A3021 RMK A01 T01290094  RH  080%=      5-min Rain = 0
KMC6 220200Z 10006KT 13/10 A3021 RMK A01 T01290095  RH  080%=      5-min Rain = 0
KMC6 220201Z 11006KT 13/10 A3021 RMK A01 T01290096  RH  080%=      5-min Rain = 0
KMC6 220202Z 11006KT 13/10 A3021 RMK A01 T01300097  RH  080%=      5-min Rain = 0
KMC6 220203Z 11006KT 13/10 A3021 RMK A01 T01300095  RH  079%=      5-min Rain = 0
KMC6 220204Z 11006KT 13/10 A3021 RMK A01 T01300095  RH  079%=      5-min Rain = 0
KMC6 220205Z 11006KT 13/10 A3021 RMK A01 T01300095  RH  079%=      5-min Rain = 0
KMC6 220206Z 11006KT 13/10 A3021 RMK A01 T01290095  RH  080%=      5-min Rain = 0
KMC6 220207Z 11006KT 13/09 A3021 RMK A01 T01290092  RH  078%=      5-min Rain = 0
KMC6 220208Z 11006KT 13/09 A3021 RMK A01 T01280093  RH  079%=      5-min Rain = 0
KMC6 220209Z 11006KT 13/09 A3021 RMK A01 T01270090  RH  078%=      5-min Rain = 0
KMC6 220210Z 10007KT 13/09 A3021 RMK A01 T01260087  RH  077%=      5-min Rain = 0
KMC6 220211Z 10006KT 12/09 A3021 RMK A01 T01240086  RH  077%=      5-min Rain = 0
KMC6 220212Z 10006KT 12/09 A3021 RMK A01 T01230085  RH  077%=      5-min Rain = 0
KMC6 220213Z 11006KT 12/08 A3021 RMK A01 T01220084  RH  077%=      5-min Rain = 0
KMC6 220214Z 10007KT 12/08 A3021 RMK A01 T01200082  RH  077%=      5-min Rain = 0
KMC6 220215Z 10006KT 12/08 A3021 RMK A01 T01190080  RH  077%=      5-min Rain = 0
KMC6 220216Z 10005KT 12/08 A3021 RMK A01 T01180080  RH  078%=      5-min Rain = 0
KMC6 220217Z 09004KT 12/08 A3021 RMK A01 T01170082  RH  079%=      5-min Rain = 0
KMC6 220218Z 09005KT 12/09 A3021 RMK A01 T01170086  RH  081%=      5-min Rain = 0
KMC6 220219Z 10005KT 12/09 A3021 RMK A01 T01170086  RH  081%=      5-min Rain = 0
KMC6 220220Z 10005KT 12/09 A3021 RMK A01 T01180085  RH  080%=      5-min Rain = 0
KMC6 220221Z 10005KT 12/09 A3021 RMK A01 T01180085  RH  080%=      5-min Rain = 0
KMC6 220222Z 10004KT 12/09 A3022 RMK A01 T01180086  RH  081%=      5-min Rain = 0
KMC6 220223Z 09005KT 12/09 A3022 RMK A01 T01180087  RH  082%=      5-min Rain = 0
KMC6 220224Z 09005KT 12/09 A3022 RMK A01 T01180089  RH  082%=      5-min Rain = 0
KMC6 220225Z 09005KT 12/09 A3022 RMK A01 T01190091  RH  083%=      5-min Rain = 0
KMC6 220226Z 09005KT 12/09 A3022 RMK A01 T01200093  RH  083%=      5-min Rain = 0
KMC6 220227Z 09005KT 12/09 A3022 RMK A01 T01210093  RH  083%=      5-min Rain = 0
KMC6 220228Z 09005KT 12/09 A3022 RMK A01 T01220093  RH  083%=      5-min Rain = 0
KMC6 220229Z 09005KT 12/09 A3022 RMK A01 T01220092  RH  082%=      5-min Rain = 0
KMC6 220230Z 09005KT 12/09 A3022 RMK A01 T01220094  RH  083%=      5-min Rain = 0
KMC6 220231Z 09004KT 12/09 A3022 RMK A01 T01220094  RH  083%=      5-min Rain = 0
KMC6 220232Z 09005KT 12/09 A3022 RMK A01 T01230093  RH  082%=      5-min Rain = 0
KMC6 220233Z 08004KT 12/09 A3022 RMK A01 T01230092  RH  082%=      5-min Rain = 0
KMC6 220234Z 08005KT 12/09 A3022 RMK A01 T01230093  RH  082%=      5-min Rain = 0
KMC6 220235Z 08005KT 12/09 A3022 RMK A01 T01220093  RH  082%=      5-min Rain = 0
KMC6 220236Z 08005KT 12/09 A3022 RMK A01 T01220092  RH  082%=      5-min Rain = 0
KMC6 220237Z 08006KT 12/09 A3022 RMK A01 T01220092  RH  082%=      5-min Rain = 0
KMC6 220238Z 08006KT 12/09 A3022 RMK A01 T01210092  RH  082%=      5-min Rain = 0
KMC6 220239Z 08006KT 12/09 A3022 RMK A01 T01200091  RH  082%=      5-min Rain = 0
KMC6 220240Z 08006KT 12/09 A3022 RMK A01 T01200090  RH  082%=      5-min Rain = 0
KMC6 220241Z 08005KT 12/09 A3022 RMK A01 T01180087  RH  081%=      5-min Rain = 0
KMC6 220242Z 07005KT 12/09 A3022 RMK A01 T01160086  RH  082%=      5-min Rain = 0
KMC6 220243Z 08006KT 12/09 A3022 RMK A01 T01150087  RH  083%=      5-min Rain = 0
KMC6 220244Z 08006KT 11/09 A3022 RMK A01 T01140087  RH  083%=      5-min Rain = 0
KMC6 220245Z 08006KT 11/09 A3022 RMK A01 T01130087  RH  084%=      5-min Rain = 0
KMC6 220246Z 08006KT 11/09 A3022 RMK A01 T01130087  RH  084%=      5-min Rain = 0
KMC6 220247Z 08006KT 11/09 A3022 RMK A01 T01130088  RH  085%=      5-min Rain = 0
KMC6 220248Z 08006KT 11/09 A3022 RMK A01 T01130087  RH  084%=      5-min Rain = 0
KMC6 220249Z 08006KT 11/09 A3022 RMK A01 T01120087  RH  085%=      5-min Rain = 0
KMC6 220250Z 09006KT 11/09 A3022 RMK A01 T01120087  RH  085%=      5-min Rain = 0
KMC6 220251Z 08005KT 11/09 A3022 RMK A01 T01120086  RH  084%=      5-min Rain = 0
KMC6 220252Z 08005KT 11/09 A3022 RMK A01 T01120086  RH  084%=      5-min Rain = 0
KMC6 220253Z 08005KT 11/08 A3022 RMK A01 T01120084  RH  083%=      5-min Rain = 0
KMC6 220254Z 08005KT 11/08 A3022 RMK A01 T01120084  RH  083%=      5-min Rain = 0
KMC6 220255Z 08005KT 11/08 A3022 RMK A01 T01120084  RH  083%=      5-min Rain = 0
KMC6 220256Z 08005KT 11/08 A3022 RMK A01 T01120084  RH  083%=      5-min Rain = 0
KMC6 220257Z 08005KT 11/08 A3022 RMK A01 T01120084  RH  083%=      5-min Rain = 0
KMC6 220258Z 08005KT 11/09 A3022 RMK A01 T01120085  RH  083%=      5-min Rain = 0
KMC6 220259Z 08005KT 11/09 A3022 RMK A01 T01120085  RH  084%=      5-min Rain = 0
KMC6 220300Z 08006KT 11/09 A3022 RMK A01 T01130087  RH  084%=      5-min Rain = 0
KMC6 220301Z 08006KT 11/09 A3022 RMK A01 T01130088  RH  084%=      5-min Rain = 0
KMC6 220302Z 07006KT 11/09 A3022 RMK A01 T01140088  RH  084%=      5-min Rain = 0
KMC6 220303Z 07006KT 11/09 A3022 RMK A01 T01140086  RH  083%=      5-min Rain = 0
KMC6 220304Z 07006KT 11/09 A3023 RMK A01 T01130088  RH  084%=      5-min Rain = 0
KMC6 220305Z 06007KT 11/09 A3023 RMK A01 T01130088  RH  085%=      5-min Rain = 0
KMC6 220306Z 07008KT 11/09 A3023 RMK A01 T01130088  RH  085%=      5-min Rain = 0
KMC6 220307Z 07008KT 11/09 A3023 RMK A01 T01120089  RH  086%=      5-min Rain = 0
KMC6 220308Z 07009KT 11/09 A3023 RMK A01 T01130090  RH  086%=      5-min Rain = 0
KMC6 220309Z 06008KT 11/09 A3023 RMK A01 T01140091  RH  085%=      5-min Rain = 0
KMC6 220310Z 06008KT 12/09 A3023 RMK A01 T01150092  RH  085%=      5-min Rain = 0
KMC6 220311Z 06008KT 12/09 A3023 RMK A01 T01160094  RH  086%=      5-min Rain = 0
KMC6 220312Z 06008KT 12/10 A3023 RMK A01 T01180095  RH  086%=      5-min Rain = 0
KMC6 220313Z 06008KT 12/10 A3023 RMK A01 T01180096  RH  086%=      5-min Rain = 0
KMC6 220314Z 06008KT 12/10 A3023 RMK A01 T01190096  RH  086%=      5-min Rain = 0
KMC6 220315Z 06008KT 12/10 A3023 RMK A01 T01200097  RH  086%=      5-min Rain = 0
KMC6 220316Z 06008KT 12/10 A3023 RMK A01 T01210098  RH  086%=      5-min Rain = 0
KMC6 220317Z 05008KT 12/10 A3023 RMK A01 T01210099  RH  086%=      5-min Rain = 0
KMC6 220318Z 05007KT 12/10 A3023 RMK A01 T01220100  RH  086%=      5-min Rain = 0
KMC6 220319Z 05007KT 12/10 A3023 RMK A01 T01240101  RH  086%=      5-min Rain = 0
KMC6 220320Z 05008KT 12/10 A3023 RMK A01 T01240100  RH  085%=      5-min Rain = 0
KMC6 220321Z 05008KT 12/10 A3023 RMK A01 T01240100  RH  085%=      5-min Rain = 0
KMC6 220322Z 05008KT 12/10 A3023 RMK A01 T01240099  RH  085%=      5-min Rain = 0
KMC6 220323Z 05008KT 12/10 A3023 RMK A01 T01230099  RH  085%=      5-min Rain = 0
KMC6 220324Z 06008KT 12/10 A3023 RMK A01 T01230100  RH  085%=      5-min Rain = 0
KMC6 220325Z 06007KT 12/10 A3023 RMK A01 T01230100  RH  086%=      5-min Rain = 0
KMC6 220326Z 06009KT 12/10 A3023 RMK A01 T01230100  RH  086%=      5-min Rain = 0
KMC6 220327Z 06008KT 12/10 A3023 RMK A01 T01240101  RH  086%=      5-min Rain = 0
KMC6 220328Z 06008KT 12/10 A3023 RMK A01 T01240101  RH  086%=      5-min Rain = 0
KMC6 220329Z 05007KT 12/10 A3023 RMK A01 T01240100  RH  085%=      5-min Rain = 0
KMC6 220330Z 05007KT 12/10 A3023 RMK A01 T01240100  RH  085%=      5-min Rain = 0
KMC6 220331Z 05007KT 12/10 A3023 RMK A01 T01240100  RH  085%=      5-min Rain = 0
KMC6 220332Z 05007KT 12/10 A3023 RMK A01 T01230099  RH  085%=      5-min Rain = 0
KMC6 220333Z 05007KT 12/10 A3023 RMK A01 T01210098  RH  085%=      5-min Rain = 0
KMC6 220334Z 05007KT 12/10 A3023 RMK A01 T01200097  RH  086%=      5-min Rain = 0
KMC6 220335Z 05007KT 12/10 A3023 RMK A01 T01190097  RH  086%=      5-min Rain = 0
KMC6 220336Z 05008KT 12/10 A3023 RMK A01 T01190097  RH  087%=      5-min Rain = 0
KMC6 220337Z 06008KT 12/10 A3023 RMK A01 T01180098  RH  087%=      5-min Rain = 0
KMC6 220338Z 06008KT 12/10 A3023 RMK A01 T01180098  RH  087%=      5-min Rain = 0
KMC6 220339Z 06008KT 12/10 A3023 RMK A01 T01190099  RH  087%=      5-min Rain = 0
KMC6 220340Z 06008KT 12/10 A3023 RMK A01 T01190099  RH  087%=      5-min Rain = 0
KMC6 220341Z 07009KT 12/10 A3023 RMK A01 T01200100  RH  088%=      5-min Rain = 0
KMC6 220342Z 07008KT 12/10 A3023 RMK A01 T01200100  RH  087%=      5-min Rain = 0
KMC6 220343Z 07008KT 12/10 A3023 RMK A01 T01210100  RH  087%=      5-min Rain = 0
KMC6 220344Z 08007KT 12/10 A3023 RMK A01 T01210099  RH  087%=      5-min Rain = 0
KMC6 220345Z 08007KT 12/10 A3023 RMK A01 T01200099  RH  087%=      5-min Rain = 0
KMC6 220346Z 08007KT 12/10 A3023 RMK A01 T01200099  RH  087%=      5-min Rain = 0
KMC6 220347Z 08007KT 12/10 A3023 RMK A01 T01200099  RH  087%=      5-min Rain = 0
KMC6 220348Z 09007KT 12/10 A3023 RMK A01 T01200098  RH  087%=      5-min Rain = 0
KMC6 220349Z 09007KT 12/10 A3023 RMK A01 T01190098  RH  087%=      5-min Rain = 0
KMC6 220350Z 09007KT 12/10 A3023 RMK A01 T01190098  RH  087%=      5-min Rain = 0
KMC6 220351Z 09007KT 12/10 A3023 RMK A01 T01190098  RH  087%=      5-min Rain = 0
KMC6 220352Z 09007KT 12/10 A3023 RMK A01 T01180097  RH  087%=      5-min Rain = 0
KMC6 220353Z 09008KT 12/10 A3023 RMK A01 T01180097  RH  087%=      5-min Rain = 0
KMC6 220354Z 09008KT 12/10 A3023 RMK A01 T01170097  RH  087%=      5-min Rain = 0
KMC6 220355Z 09008KT 12/10 A3023 RMK A01 T01170098  RH  088%=      5-min Rain = 0
KMC6 220356Z 09008KT 12/10 A3022 RMK A01 T01170098  RH  088%=      5-min Rain = 0
KMC6 220357Z 08009KT 12/10 A3022 RMK A01 T01170098  RH  088%=      5-min Rain = 0
KMC6 220358Z 08008KT 12/10 A3023 RMK A01 T01180099  RH  088%=      5-min Rain = 0
KMC6 220359Z 08008KT 12/10 A3023 RMK A01 T01180099  RH  088%=      5-min Rain = 0
KMC6 220400Z 08008KT 12/10 A3023 RMK A01 T01180099  RH  088%=      5-min Rain = 0
KMC6 220401Z 08008KT 12/10 A3022 RMK A01 T01180099  RH  088%=      5-min Rain = 0
KMC6 220402Z 08008KT 12/10 A3022 RMK A01 T01180099  RH  088%=      5-min Rain = 0
KMC6 220403Z 08007KT 12/10 A3022 RMK A01 T01180099  RH  088%=      5-min Rain = 0
KMC6 220404Z 08007KT 12/10 A3022 RMK A01 T01180099  RH  088%=      5-min Rain = 0
KMC6 220405Z 08008KT 12/10 A3022 RMK A01 T01180099  RH  088%=      5-min Rain = 0
KMC6 220406Z 08007KT 12/10 A3022 RMK A01 T01180099  RH  088%=      5-min Rain = 0
KMC6 220407Z 08007KT 12/10 A3022 RMK A01 T01180099  RH  088%=      5-min Rain = 0
KMC6 220408Z 07007KT 12/10 A3023 RMK A01 T01180099  RH  088%=      5-min Rain = 0
KMC6 220409Z 07007KT 12/10 A3023 RMK A01 T01180099  RH  088%=      5-min Rain = 0
KMC6 220410Z 07007KT 12/10 A3023 RMK A01 T01180099  RH  088%=      5-min Rain = 0
KMC6 220411Z 07007KT 12/10 A3023 RMK A01 T01180098  RH  088%=      5-min Rain = 0
KMC6 220412Z 07008KT 12/10 A3023 RMK A01 T01180099  RH  088%=      5-min Rain = 0
KMC6 220413Z 07008KT 12/10 A3023 RMK A01 T01180098  RH  088%=      5-min Rain = 0
KMC6 220414Z 07008KT 12/10 A3023 RMK A01 T01170098  RH  088%=      5-min Rain = 0
KMC6 220415Z 07008KT 12/10 A3023 RMK A01 T01170098  RH  088%=      5-min Rain = 0
KMC6 220416Z 07008KT 12/10 A3023 RMK A01 T01170098  RH  088%=      5-min Rain = 0
KMC6 220417Z 07008KT 12/10 A3023 RMK A01 T01160097  RH  088%=      5-min Rain = 0
KMC6 220418Z 07008KT 12/10 A3023 RMK A01 T01160097  RH  088%=      5-min Rain = 0
KMC6 220419Z 07008KT 12/10 A3023 RMK A01 T01150097  RH  089%=      5-min Rain = 0
KMC6 220420Z 07008KT 12/10 A3023 RMK A01 T01150097  RH  089%=      5-min Rain = 0
KMC6 220421Z 06008KT 12/10 A3023 RMK A01 T01150097  RH  089%=      5-min Rain = 0
KMC6 220422Z 06008KT 12/10 A3023 RMK A01 T01150098  RH  089%=      5-min Rain = 0
KMC6 220423Z 06008KT 12/10 A3023 RMK A01 T01160098  RH  089%=      5-min Rain = 0
KMC6 220424Z 06009KT 12/10 A3023 RMK A01 T01160098  RH  089%=      5-min Rain = 0
KMC6 220425Z 06008KT 12/10 A3023 RMK A01 T01160098  RH  089%=      5-min Rain = 0
KMC6 220426Z 06008KT 12/10 A3023 RMK A01 T01170098  RH  088%=      5-min Rain = 0
KMC6 220427Z 06008KT 12/10 A3023 RMK A01 T01170098  RH  088%=      5-min Rain = 0
KMC6 220428Z 06008KT 12/10 A3023 RMK A01 T01170098  RH  088%=      5-min Rain = 0
KMC6 220429Z 06008KT 12/10 A3023 RMK A01 T01170098  RH  088%=      5-min Rain = 0
KMC6 220430Z 06007KT 12/10 A3024 RMK A01 T01160098  RH  088%=      5-min Rain = 0
KMC6 220431Z 06007KT 12/10 A3024 RMK A01 T01160097  RH  089%=      5-min Rain = 0
KMC6 220432Z 06007KT 12/10 A3024 RMK A01 T01160098  RH  089%=      5-min Rain = 0
KMC6 220433Z 05007KT 12/10 A3024 RMK A01 T01160098  RH  089%=      5-min Rain = 0
KMC6 220434Z 05007KT 12/10 A3024 RMK A01 T01150097  RH  089%=      5-min Rain = 0
KMC6 220435Z 05007KT 11/10 A3024 RMK A01 T01140096  RH  089%=      5-min Rain = 0
KMC6 220436Z 05007KT 11/10 A3024 RMK A01 T01130095  RH  089%=      5-min Rain = 0
KMC6 220437Z 05007KT 11/10 A3024 RMK A01 T01130095  RH  089%=      5-min Rain = 0
KMC6 220438Z 05008KT 11/10 A3024 RMK A01 T01120096  RH  089%=      5-min Rain = 0
KMC6 220439Z 05008KT 11/10 A3024 RMK A01 T01120096  RH  090%=      5-min Rain = 0
KMC6 220440Z 05008KT 11/10 A3024 RMK A01 T01120096  RH  090%=      5-min Rain = 0
KMC6 220441Z 05008KT 11/10 A3024 RMK A01 T01120096  RH  090%=      5-min Rain = 0
KMC6 220442Z 05008KT 11/10 A3024 RMK A01 T01120097  RH  090%=      5-min Rain = 0
KMC6 220443Z 05007KT 11/10 A3024 RMK A01 T01130098  RH  090%=      5-min Rain = 0
KMC6 220444Z 05007KT 11/10 A3024 RMK A01 T01130098  RH  090%=      5-min Rain = 0
KMC6 220445Z 04007KT 11/10 A3024 RMK A01 T01140098  RH  090%=      5-min Rain = 0
KMC6 220446Z 04008KT 11/10 A3024 RMK A01 T01140099  RH  090%=      5-min Rain = 0
KMC6 220447Z 05007KT 12/10 A3024 RMK A01 T01150099  RH  090%=      5-min Rain = 0
KMC6 220448Z 05007KT 12/10 A3024 RMK A01 T01150099  RH  090%=      5-min Rain = 0
KMC6 220449Z 05007KT 12/10 A3024 RMK A01 T01150099  RH  090%=      5-min Rain = 0
KMC6 220450Z 05007KT 12/10 A3024 RMK A01 T01160099  RH  090%=      5-min Rain = 0
KMC6 220451Z 05007KT 12/10 A3024 RMK A01 T01160099  RH  090%=      5-min Rain = 0
KMC6 220452Z 05007KT 12/10 A3024 RMK A01 T01160099  RH  089%=      5-min Rain = 0
KMC6 220453Z 05007KT 12/10 A3024 RMK A01 T01160099  RH  089%=      5-min Rain = 0
KMC6 220454Z 05006KT 12/10 A3024 RMK A01 T01160099  RH  089%=      5-min Rain = 0
KMC6 220455Z 05006KT 12/10 A3024 RMK A01 T01160099  RH  089%=      5-min Rain = 0
KMC6 220456Z 04006KT 12/10 A3024 RMK A01 T01160099  RH  089%=      5-min Rain = 0
KMC6 220457Z 05005KT 12/10 A3024 RMK A01 T01160098  RH  089%=      5-min Rain = 0
KMC6 220458Z 05005KT 12/10 A3024 RMK A01 T01160098  RH  089%=      5-min Rain = 0
KMC6 220459Z 05006KT 12/10 A3024 RMK A01 T01150098  RH  089%=      5-min Rain = 0
KMC6 220500Z 05006KT 12/10 A3024 RMK A01 T01150099  RH  089%=      5-min Rain = 0
KMC6 220501Z 05005KT 12/10 A3024 RMK A01 T01150098  RH  090%=      5-min Rain = 0
KMC6 220502Z 05005KT 12/10 A3024 RMK A01 T01150098  RH  089%=      5-min Rain = 0
KMC6 220503Z 04005KT 12/10 A3024 RMK A01 T01150098  RH  089%=      5-min Rain = 0
KMC6 220504Z 05005KT 11/10 A3024 RMK A01 T01140097  RH  089%=      5-min Rain = 0
KMC6 220505Z 04005KT 11/10 A3024 RMK A01 T01140097  RH  089%=      5-min Rain = 0
KMC6 220506Z 04005KT 11/10 A3024 RMK A01 T01140097  RH  090%=      5-min Rain = 0
KMC6 220507Z 04005KT 11/10 A3024 RMK A01 T01140097  RH  090%=      5-min Rain = 0
KMC6 220508Z 05005KT 11/10 A3024 RMK A01 T01140097  RH  090%=      5-min Rain = 0
KMC6 220509Z 05005KT 11/10 A3024 RMK A01 T01130097  RH  089%=      5-min Rain = 0
KMC6 220510Z 05005KT 11/10 A3024 RMK A01 T01130097  RH  090%=      5-min Rain = 0
KMC6 220511Z 05004KT 11/10 A3024 RMK A01 T01130097  RH  090%=      5-min Rain = 0
KMC6 220512Z 05005KT 11/10 A3024 RMK A01 T01130097  RH  090%=      5-min Rain = 0
KMC6 220513Z 05005KT 11/10 A3024 RMK A01 T01130097  RH  090%=      5-min Rain = 0
KMC6 220514Z 05006KT 11/10 A3024 RMK A01 T01130097  RH  090%=      5-min Rain = 0
KMC6 220515Z 05005KT 11/10 A3024 RMK A01 T01130097  RH  090%=      5-min Rain = 0
KMC6 220516Z 05005KT 11/10 A3024 RMK A01 T01140097  RH  090%=      5-min Rain = 0
KMC6 220517Z 05005KT 11/10 A3024 RMK A01 T01140097  RH  089%=      5-min Rain = 0
KMC6 220518Z 05005KT 11/10 A3024 RMK A01 T01140097  RH  089%=      5-min Rain = 0
KMC6 220519Z 05005KT 11/10 A3023 RMK A01 T01140096  RH  089%=      5-min Rain = 0
KMC6 220520Z 05005KT 11/10 A3023 RMK A01 T01140096  RH  089%=      5-min Rain = 0
KMC6 220521Z 05005KT 11/10 A3023 RMK A01 T01140096  RH  089%=      5-min Rain = 0
KMC6 220522Z 05005KT 11/10 A3023 RMK A01 T01140096  RH  089%=      5-min Rain = 0
KMC6 220523Z 05005KT 11/10 A3023 RMK A01 T01140096  RH  089%=      5-min Rain = 0
KMC6 220524Z 06006KT 11/10 A3023 RMK A01 T01140097  RH  089%=      5-min Rain = 0
KMC6 220525Z 06006KT 11/10 A3023 RMK A01 T01140097  RH  089%=      5-min Rain = 0
KMC6 220526Z 05006KT 11/10 A3023 RMK A01 T01140097  RH  089%=      5-min Rain = 0
KMC6 220527Z 05006KT 11/10 A3023 RMK A01 T01140097  RH  089%=      5-min Rain = 0
KMC6 220528Z 05006KT 11/10 A3023 RMK A01 T01140097  RH  089%=      5-min Rain = 0
KMC6 220529Z 05006KT 11/10 A3023 RMK A01 T01140097  RH  089%=      5-min Rain = 0
KMC6 220530Z 05006KT 11/10 A3023 RMK A01 T01140097  RH  089%=      5-min Rain = 0
KMC6 220531Z 05007KT 11/10 A3023 RMK A01 T01140096  RH  089%=      5-min Rain = 0
KMC6 220532Z 05007KT 11/10 A3023 RMK A01 T01140097  RH  089%=      5-min Rain = 0
KMC6 220533Z 05007KT 11/10 A3023 RMK A01 T01140097  RH  089%=      5-min Rain = 0
KMC6 220534Z 05008KT 11/10 A3023 RMK A01 T01140096  RH  089%=      5-min Rain = 0
KMC6 220535Z 06007KT 11/10 A3023 RMK A01 T01140096  RH  089%=      5-min Rain = 0
KMC6 220536Z 06008KT 11/10 A3023 RMK A01 T01130096  RH  089%=      5-min Rain = 0
KMC6 220537Z 05007KT 11/10 A3023 RMK A01 T01130096  RH  089%=      5-min Rain = 0
KMC6 220538Z 05008KT 11/10 A3023 RMK A01 T01130096  RH  089%=      5-min Rain = 0
KMC6 220539Z 05008KT 11/10 A3023 RMK A01 T01130096  RH  089%=      5-min Rain = 0
KMC6 220540Z 05007KT 11/10 A3023 RMK A01 T01130096  RH  089%=      5-min Rain = 0
KMC6 220541Z 05007KT 11/10 A3024 RMK A01 T01130096  RH  089%=      5-min Rain = 0
KMC6 220542Z 05007KT 11/10 A3024 RMK A01 T01130096  RH  089%=      5-min Rain = 0
KMC6 220543Z 05008KT 11/10 A3024 RMK A01 T01130096  RH  089%=      5-min Rain = 0
KMC6 220544Z 05008KT 11/10 A3024 RMK A01 T01130096  RH  089%=      5-min Rain = 0
KMC6 220545Z 05008KT 11/10 A3023 RMK A01 T01120095  RH  089%=      5-min Rain = 0
KMC6 220546Z 05008KT 11/10 A3023 RMK A01 T01120095  RH  089%=      5-min Rain = 0
KMC6 220547Z 05009KT 11/09 A3023 RMK A01 T01120094  RH  089%=      5-min Rain = 0
KMC6 220548Z 05010KT 11/09 A3023 RMK A01 T01110094  RH  089%=      5-min Rain = 0
KMC6 220549Z 05010KT 11/10 A3023 RMK A01 T01110095  RH  090%=      5-min Rain = 0
KMC6 220550Z 05009KT 11/10 A3023 RMK A01 T01110095  RH  090%=      5-min Rain = 0
KMC6 220551Z 05009KT 11/10 A3023 RMK A01 T01110095  RH  090%=      5-min Rain = 0
KMC6 220552Z 05008KT 11/09 A3023 RMK A01 T01110094  RH  090%=      5-min Rain = 0
KMC6 220553Z 05009KT 11/09 A3023 RMK A01 T01100094  RH  090%=      5-min Rain = 0
KMC6 220554Z 05011KT 11/09 A3023 RMK A01 T01100094  RH  090%=      5-min Rain = 0
KMC6 220555Z 05011KT 11/09 A3023 RMK A01 T01090094  RH  090%=      5-min Rain = 0
KMC6 220556Z 05009KT 11/09 A3023 RMK A01 T01090094  RH  090%=      5-min Rain = 0
KMC6 220557Z 05010KT 11/09 A3023 RMK A01 T01080093  RH  090%=      5-min Rain = 0
KMC6 220558Z 05010KT 11/09 A3023 RMK A01 T01080093  RH  090%=      5-min Rain = 0
KMC6 220559Z 05012KT 11/09 A3023 RMK A01 T01070093  RH  091%=      5-min Rain = 0

Page generated in 0.1607 seconds.